W2GRK-15 Weather Reports


Display with metric or nautical units.
time (UTC)temp
F
wind
direction
speed
MPH
gust
MPH
rain 1hr
in
rain 24hr
in
rain mn
in
humidity
%
barometer
mb
20260510191816 75 191 4.0 6.0 0.00 0.08 0.00 52 1013.1
20260510191807 75 207 4.0 4.0 0.00 0.08 0.00 52 1013.3
20260510191623 76 213 5.0 8.0 0.00 0.08 0.00 51 1013.2
20260510191519 76 202 2.0 4.0 0.00 0.08 0.00 51 1013.4
20260510191431 76 205 1.0 4.0 0.00 0.08 0.00 52 1013.2
20260510191326 76 283 2.0 4.0 0.00 0.08 0.00 52 1013.4
20260510191222 75 320 3.0 3.0 0.00 0.08 0.00 53 1013.2
20260510191117 75 352 2.0 3.0 0.00 0.08 0.00 53 1013.2
20260510191029 75 332 2.0 5.0 0.00 0.08 0.00 53 1013.3
20260510190924 75 260 1.0 2.0 0.00 0.08 0.00 55 1013.3
20260510190820 75 193 2.0 3.0 0.00 0.08 0.00 54 1013.2
20260510190716 75 219 2.0 4.0 0.00 0.08 0.00 56 1013.3
20260510190627 75 180 2.0 4.0 0.00 0.08 0.00 56 1013.3
20260510190523 74 216 3.0 4.0 0.00 0.08 0.00 58 1013.3
20260510190418 74 202 3.0 4.0 0.00 0.08 0.00 57 1013.1
20260510190330 74 193 4.0 4.0 0.00 0.08 0.00 56 1013.3
20260510190225 74 196 4.0 5.0 0.00 0.08 0.00 57 1013.2
20260510190121 74 188 2.0 3.0 0.00 0.08 0.00 57 1013.3
20260510190016 75 193 2.0 3.0 0.00 0.08 0.00 58 1013.3
20260510185948 75 204 3.0 4.0 0.00 0.08 0.00 57 1013.2
20260510185824 75 197 5.0 7.0 0.00 0.08 0.00 56 1013.2
20260510185720 76 196 5.0 6.0 0.00 0.08 0.00 56 1013.3
20260510185635 76 205 3.0 6.0 0.00 0.08 0.00 56 1013.4
20260510185607 76 294 3.0 5.0 0.00 0.08 0.00 57 1013.2
20260510185422 76 334 0.0 2.0 0.00 0.08 0.00 59 1013.3
20260510185318 75 291 1.0 2.0 0.00 0.08 0.00 58 1013.4
20260510185230 75 205 1.0 5.0 0.00 0.08 0.00 57 1013.4
20260510185125 75 196 3.0 6.0 0.00 0.08 0.00 57 1013.3
20260510185021 75 217 2.0 4.0 0.00 0.08 0.00 58 1013.3
20260510184917 75 215 1.0 2.0 0.00 0.08 0.00 58 1013.3
20260510184828 75 252 2.0 3.0 0.00 0.08 0.00 58 1013.4
20260510184724 75 219 2.0 4.0 0.00 0.08 0.00 58 1013.5
20260510184639 74 204 1.0 2.0 0.00 0.08 0.00 59 1013.5
20260510184515 74 196 2.0 5.0 0.00 0.08 0.00 59 1013.4
20260510184427 73 259 2.0 2.0 0.00 0.08 0.00 59 1013.5
20260510184322 73 290 1.0 2.0 0.00 0.08 0.00 59 1013.6
20260510184218 73 204 1.0 3.0 0.00 0.08 0.00 60 1013.2
20260510184130 73 354 2.0 3.0 0.00 0.08 0.00 60 1013.3
20260510184025 73 208 1.0 4.0 0.00 0.08 0.00 61 1013.3
20260510183921 73 313 3.0 4.0 0.00 0.08 0.00 59 1013.3
20260510183816 73 327 3.0 6.0 0.00 0.08 0.00 59 1013.4
20260510183728 73 204 2.0 4.0 0.00 0.08 0.00 60 1013.3
20260510183624 73 213 3.0 4.0 0.00 0.08 0.00 60 1013.3
20260510183520 73 171 2.0 3.0 0.00 0.08 0.00 60 1013.3
20260510183455 73 327 2.0 4.0 0.00 0.08 0.00 59 1013.4
20260510183327 73 255 1.0 3.0 0.00 0.08 0.00 60 1013.4
20260510183222 73 329 3.0 5.0 0.00 0.08 0.00 59 1013.3
20260510183118 73 329 3.0 7.0 0.00 0.08 0.00 58 1013.2
20260510183030 73 326 4.0 7.0 0.00 0.08 0.00 59 1013.3
20260510182925 73 331 2.0 7.0 0.00 0.08 0.00 58 1013.4
20260510182821 74 333 4.0 7.0 0.00 0.08 0.00 57 1013.5
20260510182717 74 342 4.0 10.0 0.00 0.08 0.00 57 1013.4
20260510182628 74 343 2.0 4.0 0.00 0.08 0.00 58 1013.5
20260510182524 74 207 2.0 3.0 0.00 0.09 0.00 59 1013.4
20260510182419 74 204 4.0 6.0 0.00 0.09 0.00 59 1013.2
20260510182351 74 205 2.0 4.0 0.00 0.09 0.00 59 1013.3
20260510182227 74 303 3.0 5.0 0.00 0.09 0.00 58 1013.4
20260510182122 75 337 4.0 8.0 0.00 0.09 0.00 58 1013.2
20260510182018 75 297 4.0 7.0 0.00 0.09 0.00 58 1013.3
20260510181929 74 189 3.0 5.0 0.00 0.09 0.00 59 1013.4
20260510181825 74 180 3.0 6.0 0.00 0.09 0.00 60 1013.4
20260510181721 74 193 4.0 6.0 0.00 0.09 0.00 58 1013.3
20260510181616 75 193 6.0 8.0 0.00 0.09 0.00 58 1013.3
20260510181548 75 206 5.0 7.0 0.00 0.09 0.00 59 1013.2
20260510181424 75 197 5.0 7.0 0.00 0.09 0.00 59 1013.4
20260510181319 76 208 5.0 7.0 0.00 0.09 0.00 57 1013.4
20260510181231 76 182 3.0 6.0 0.00 0.09 0.00 57 1013.4
20260510181126 76 300 2.0 4.0 0.00 0.09 0.00 56 1013.3
20260510181022 76 201 5.0 10.0 0.00 0.09 0.00 56 1013.3
20260510180938 76 205 2.0 5.0 0.00 0.09 0.00 59 1013.3
20260510180829 76 284 2.0 5.0 0.00 0.10 0.00 60 1013.2
20260510180725 75 330 1.0 2.0 0.00 0.10 0.00 59 1013.5
20260510180620 75 225 2.0 3.0 0.00 0.10 0.00 62 1013.5
20260510180516 75 206 1.0 2.0 0.00 0.10 0.00 60 1013.5
20260510180428 74 194 1.0 2.0 0.00 0.10 0.00 60 1013.4
20260510180343 74 206 1.0 2.0 0.00 0.10 0.00 62 1013.4
20260510180219 74 33 1.0 2.0 0.00 0.10 0.00 61 1013.5
20260510180131 74 10 2.0 3.0 0.00 0.10 0.00 60 1013.5
20260510180026 74 28 1.0 3.0 0.00 0.10 0.00 60 1013.4
20260510175922 74 14 1.0 3.0 0.00 0.10 0.00 61 1013.6
20260510175818 74 256 2.0 4.0 0.00 0.10 0.00 61 1013.4
20260510175729 74 205 4.0 6.0 0.00 0.10 0.00 61 1013.4
20260510175625 74 208 4.0 5.0 0.00 0.10 0.00 61 1013.6
20260510175521 73 208 4.0 7.0 0.00 0.10 0.00 62 1013.4
20260510175416 73 193 3.0 5.0 0.00 0.10 0.00 61 1013.4
20260510175328 73 213 2.0 6.0 0.00 0.10 0.00 60 1013.6
20260510175224 73 210 5.0 7.0 0.00 0.10 0.00 60 1013.6
20260510175119 73 197 6.0 10.0 0.00 0.10 0.00 59 1013.4
20260510175015 73 207 5.0 7.0 0.00 0.10 0.00 61 1013.4
20260510174926 73 215 3.0 5.0 0.00 0.10 0.00 60 1013.4
20260510174842 73 216 2.0 3.0 0.00 0.10 0.00 60 1013.5
20260510174738 73 9 2.0 3.0 0.00 0.10 0.00 59 1013.5
20260510174629 74 325 3.0 6.0 0.00 0.10 0.00 59 1013.5
20260510174525 74 201 3.0 4.0 0.00 0.10 0.00 60 1013.4
20260510174421 74 199 4.0 4.0 0.00 0.10 0.00 60 1013.6
20260510174316 74 302 3.0 5.0 0.00 0.10 0.00 58 1013.6
20260510174228 74 310 3.0 5.0 0.00 0.10 0.00 57 1013.4
20260510174124 75 271 2.0 3.0 0.00 0.10 0.00 59 1013.5
20260510174039 75 199 4.0 6.0 0.00 0.10 0.00 57 1013.2
20260510173951 75 205 4.0 7.0 0.00 0.10 0.00 59 1013.3
20260510173826 75 273 2.0 6.0 0.00 0.10 0.00 58 1013.2
20260510173722 75 332 4.0 6.0 0.00 0.10 0.00 58 1013.3
20260510173618 75 287 2.0 3.0 0.00 0.10 0.00 58 1013.3
20260510173529 75 199 3.0 4.0 0.00 0.10 0.00 58 1013.4
20260510173425 75 299 2.0 4.0 0.00 0.10 0.00 57 1013.3
20260510173321 75 34 1.0 3.0 0.00 0.10 0.00 59 1013.5
20260510173216 75 256 3.0 5.0 0.00 0.10 0.00 60 1013.4
20260510173128 74 196 2.0 3.0 0.00 0.10 0.00 63 1013.4
20260510173024 74 286 2.0 3.0 0.00 0.10 0.00 61 1013.2
20260510172939 74 286 1.0 3.0 0.00 0.10 0.00 62 1013.2
20260510172831 74 215 2.0 5.0 0.00 0.10 0.00 64 1013.2
20260510172727 73 219 1.0 4.0 0.00 0.10 0.00 64 1013.1
20260510172622 73 224 1.0 3.0 0.00 0.10 0.00 65 1013.3
20260510172538 73 198 2.0 4.0 0.00 0.10 0.00 65 1013.3
20260510172429 73 192 4.0 5.0 0.00 0.10 0.00 64 1013.3
20260510172325 73 188 3.0 5.0 0.00 0.10 0.00 64 1013.1
20260510172221 73 188 2.0 3.0 0.00 0.10 0.00 65 1013.3
20260510172116 73 185 4.0 8.0 0.00 0.10 0.00 64 1013.4
20260510172028 73 230 3.0 4.0 0.00 0.10 0.00 65 1013.1
20260510171924 73 244 2.0 3.0 0.00 0.10 0.00 64 1013.2
20260510171820 73 194 3.0 6.0 0.00 0.10 0.00 65 1013.3
20260510171715 73 182 3.0 4.0 0.00 0.10 0.00 64 1013.3
20260510171627 72 213 2.0 3.0 0.00 0.10 0.00 67 1013.3
20260510171522 72 251 1.0 2.0 0.00 0.10 0.00 65 1013.3
20260510171438 72 315 0.0 1.0 0.00 0.10 0.00 65 1013.0
20260510171330 72 20 0.0 2.0 0.00 0.10 0.00 66 1013.3
20260510171226 72 59 2.0 3.0 0.00 0.10 0.00 65 1013.3
20260510171141 73 33 2.0 3.0 0.00 0.10 0.00 66 1013.5
20260510171016 73 335 2.0 2.0 0.00 0.10 0.00 66 1013.5
20260510170928 73 241 1.0 3.0 0.00 0.10 0.00 66 1013.4
20260510170824 72 211 2.0 3.0 0.00 0.10 0.00 68 1013.4
20260510170719 72 204 3.0 4.0 0.00 0.10 0.00 66 1013.5
20260510170615 72 225 2.0 4.0 0.00 0.10 0.00 67 1013.5
20260510170527 72 197 2.0 4.0 0.00 0.10 0.00 66 1013.3
20260510170422 72 186 2.0 3.0 0.00 0.10 0.00 68 1013.4
20260510170318 71 76 0.0 2.0 0.00 0.10 0.00 69 1013.4
20260510170230 72 122 1.0 2.0 0.00 0.10 0.00 67 1013.5
20260510170145 72 60 2.0 3.0 0.00 0.10 0.00 67 1013.4
20260510170021 72 51 1.0 2.0 0.00 0.10 0.00 69 1013.4
20260510165917 72 213 1.0 3.0 0.00 0.10 0.00 69 1013.5
20260510165828 72 200 4.0 5.0 0.00 0.10 0.00 69 1013.4
20260510165724 71 239 1.0 2.0 0.00 0.10 0.00 68 1013.5
20260510165620 71 0.0 2.0 0.00 0.10 0.00 69 1013.6
20260510165515 71 151 2.0 3.0 0.00 0.10 0.00 69 1013.6
20260510165427 71 72 0.0 3.0 0.00 0.10 0.00 68 1013.4
20260510165323 71 62 3.0 3.0 0.00 0.10 0.00 69 1013.7
20260510165218 71 118 1.0 3.0 0.00 0.10 0.00 69 1013.5
20260510165150 71 182 1.0 3.0 0.00 0.10 0.00 69 1013.6
20260510165026 70 156 1.0 2.0 0.00 0.10 0.00 70 1013.6
20260510164921 70 189 2.0 2.0 0.00 0.10 0.00 71 1013.7
20260510164817 70 167 1.0 4.0 0.00 0.10 0.00 71 1013.7
20260510164729 69 204 2.0 3.0 0.00 0.10 0.00 72 1013.7
20260510164624 69 216 2.0 3.0 0.00 0.10 0.00 72 1013.5
20260510164520 69 203 2.0 2.0 0.00 0.10 0.00 71 1013.5
20260510164415 69 196 2.0 4.0 0.00 0.10 0.00 72 1013.8
20260510164327 69 176 2.0 3.0 0.00 0.10 0.00 71 1013.6
20260510164223 69 192 4.0 4.0 0.00 0.10 0.00 71 1013.7
20260510164138 69 207 3.0 4.0 0.00 0.10 0.00 72 1013.6
20260510164030 69 201 3.0 6.0 0.00 0.10 0.00 70 1013.7
20260510163926 70 207 5.0 6.0 0.00 0.10 0.00 71 1013.7
20260510163822 70 231 3.0 4.0 0.00 0.10 0.00 73 1013.8
20260510163717 69 0.0 1.0 0.00 0.10 0.00 71 1013.8
20260510163629 69 169 1.0 2.0 0.00 0.10 0.00 72 1013.8
20260510163524 69 206 3.0 5.0 0.00 0.10 0.00 72 1013.7
20260510163420 69 181 4.0 4.0 0.00 0.10 0.00 72 1013.8
20260510163356 69 185 3.0 3.0 0.00 0.10 0.00 73 1013.7
20260510163228 69 155 1.0 2.0 0.00 0.10 0.00 73 1013.7
20260510163123 69 155 1.0 2.0 0.00 0.10 0.00 72 1013.7
20260510163018 69 76 1.0 2.0 0.00 0.10 0.00 71 1013.7
20260510162930 69 7 2.0 3.0 0.00 0.10 0.00 73 1013.7
20260510162826 69 13 2.0 3.0 0.00 0.10 0.00 72 1013.9
20260510162721 69 182 1.0 2.0 0.00 0.10 0.00 74 1013.9
20260510162617 68 175 1.0 2.0 0.00 0.10 0.00 74 1014.1
20260510162529 68 181 2.0 3.0 0.00 0.10 0.00 75 1013.8
20260510162424 68 192 3.0 7.0 0.00 0.10 0.00 75 1013.9
20260510162319 68 76 1.0 3.0 0.00 0.10 0.00 75 1013.8
20260510162216 68 50 1.0 2.0 0.00 0.10 0.00 74 1014.0
20260510162127 68 128 0.0 1.0 0.00 0.10 0.00 75 1013.7
20260510162103 67 203 2.0 3.0 0.00 0.10 0.00 76 1013.9
20260510161918 67 204 3.0 4.0 0.00 0.10 0.00 75 1013.8
20260510161830 67 212 2.0 3.0 0.00 0.10 0.00 75 1013.8
20260510161726 68 195 2.0 4.0 0.00 0.10 0.00 76 1013.8
20260510161621 68 208 3.0 5.0 0.00 0.10 0.00 78 1013.9
20260510161517 67 194 3.0 5.0 0.00 0.10 0.00 78 1014.1
20260510161428 67 144 2.0 2.0 0.00 0.10 0.00 75 1013.9
20260510161324 67 183 2.0 3.0 0.00 0.10 0.00 76 1013.9
20260510161220 67 153 1.0 2.0 0.00 0.10 0.00 78 1014.1
20260510161116 67 187 1.0 3.0 0.00 0.10 0.00 76 1013.9
20260510161027 67 210 3.0 5.0 0.00 0.10 0.00 78 1014.0
20260510160923 67 211 2.0 4.0 0.00 0.10 0.00 77 1014.1
20260510160818 67 282 1.0 2.0 0.00 0.10 0.00 77 1014.0
20260510160730 67 281 3.0 4.0 0.00 0.10 0.00 77 1013.9
20260510160626 67 345 0.0 2.0 0.00 0.10 0.00 79 1014.0
20260510160521 66 176 1.0 3.0 0.00 0.10 0.00 79 1013.9
20260510160417 66 179 2.0 3.0 0.00 0.10 0.00 79 1014.1
20260510160329 66 193 4.0 6.0 0.00 0.10 0.00 79 1014.0
20260510160324 66 212 2.0 6.0 0.00 0.10 0.00 78 1014.0
20260510160120 66 184 3.0 6.0 0.00 0.10 0.00 77 1013.9
20260510160016 66 179 1.0 3.0 0.00 0.10 0.00 79 1014.2
20260510155947 66 180 2.0 3.0 0.00 0.10 0.00 78 1014.3
20260510155823 66 202 3.0 4.0 0.00 0.10 0.00 79 1014.1
20260510155718 65 271 2.0 4.0 0.00 0.10 0.00 79 1014.0
20260510155630 66 228 2.0 5.0 0.00 0.10 0.00 79 1014.1
20260510155526 66 211 4.0 5.0 0.00 0.10 0.00 80 1014.0
20260510155421 66 207 3.0 4.0 0.00 0.10 0.00 80 1014.1
20260510155317 66 214 3.0 5.0 0.00 0.10 0.00 81 1014.1
20260510155229 66 203 1.0 4.0 0.00 0.10 0.00 82 1014.2
20260510155124 65 189 2.0 4.0 0.00 0.10 0.00 81 1014.0
20260510155040 65 34 0.0 4.0 0.00 0.10 0.00 80 1014.2
20260510154915 65 207 2.0 4.0 0.00 0.10 0.00 80 1014.1
20260510154827 65 213 2.0 4.0 0.00 0.10 0.00 81 1014.2
20260510154723 65 167 2.0 3.0 0.00 0.10 0.00 82 1014.1
20260510154618 65 200 2.0 2.0 0.00 0.10 0.00 81 1014.0
20260510154530 65 200 2.0 4.0 0.00 0.10 0.00 81 1014.3
20260510154426 65 180 4.0 5.0 0.00 0.10 0.00 81 1014.2
20260510154321 64 81 1.0 2.0 0.00 0.10 0.00 80 1014.2
20260510154217 64 18 1.0 2.0 0.00 0.10 0.00 80 1014.1
20260510154129 65 308 1.0 2.0 0.00 0.10 0.00 80 1014.1
20260510154024 65 265 1.0 2.0 0.00 0.10 0.00 81 1014.1
20260510153920 65 219 2.0 4.0 0.00 0.10 0.00 82 1014.1
20260510153816 65 165 2.0 2.0 0.00 0.10 0.00 83 1014.1
20260510153727 64 194 2.0 3.0 0.00 0.10 0.00 84 1014.1
20260510153623 64 113 2.0 3.0 0.00 0.10 0.00 84 1014.1
20260510153518 64 158 3.0 4.0 0.00 0.10 0.00 84 1014.4
20260510153430 64 155 2.0 2.0 0.00 0.10 0.00 84 1014.2
20260510153345 64 193 3.0 4.0 0.00 0.10 0.00 84 1014.4
20260510153221 64 147 2.0 4.0 0.00 0.10 0.00 83 1014.4
20260510153137 64 184 3.0 5.0 0.00 0.10 0.00 83 1014.5
20260510153028 64 192 3.0 4.0 0.00 0.10 0.00 84 1014.3
20260510152924 64 185 3.0 4.0 0.00 0.10 0.00 84 1014.4
20260510152820 64 193 3.0 4.0 0.00 0.10 0.00 84 1014.5
20260510152715 64 193 4.0 6.0 0.00 0.10 0.00 84 1014.4
20260510152647 64 166 3.0 4.0 0.00 0.10 0.00 84 1014.3
20260510152523 64 165 2.0 3.0 0.00 0.10 0.00 84 1014.3
20260510152418 63 126 2.0 3.0 0.00 0.10 0.00 84 1014.3
20260510152330 63 154 2.0 3.0 0.00 0.10 0.00 85 1014.3
20260510152245 63 163 1.0 2.0 0.00 0.10 0.00 86 1014.3
20260510152121 62 199 3.0 4.0 0.00 0.10 0.00 85 1014.4
20260510152018 62 154 1.0 2.0 0.00 0.10 0.00 85 1014.3
20260510151928 62 224 1.0 3.0 0.00 0.10 0.00 86 1014.1
20260510151824 62 201 2.0 4.0 0.00 0.10 0.00 86 1014.3
20260510151720 62 192 1.0 3.0 0.00 0.10 0.00 87 1014.0
20260510151615 62 289 1.0 2.0 0.00 0.10 0.00 87 1014.2
20260510151527 62 334 1.0 2.0 0.00 0.10 0.00 87 1014.1
20260510151422 62 286 1.0 2.0 0.00 0.10 0.00 87 1014.1
20260510151318 61 176 0.0 2.0 0.00 0.10 0.00 87 1014.3
20260510151310 61 72 1.0 1.0 0.00 0.10 0.00 86 1014.1
20260510151125 61 346 1.0 3.0 0.00 0.10 0.00 86 1014.0
20260510151041 61 15 2.0 4.0 0.00 0.10 0.00 86 1014.2
20260510150916 62 164 2.0 3.0 0.00 0.10 0.00 86 1014.1
20260510150828 62 189 3.0 4.0 0.00 0.10 0.00 85 1014.2
20260510150724 62 198 3.0 4.0 0.00 0.10 0.00 86 1014.1
20260510150619 62 117 1.0 1.0 0.00 0.10 0.00 86 1014.1
20260510150515 62 0.0 1.0 0.00 0.10 0.00 86 1014.1
20260510150447 62 152 1.0 3.0 0.00 0.10 0.00 87 1014.2
20260510150322 62 152 2.0 3.0 0.00 0.10 0.00 87 1014.2
20260510150218 62 180 1.0 3.0 0.00 0.10 0.00 88 1014.1
20260510150130 62 277 1.0 3.0 0.00 0.10 0.00 88 1014.1
20260510150025 61 326 1.0 2.0 0.00 0.10 0.00 88 1014.2
20260510145941 61 183 2.0 4.0 0.00 0.10 0.00 88 1014.2
20260510145817 61 148 1.0 2.0 0.00 0.10 0.00 89 1014.4
20260510145728 60 128 2.0 2.0 0.00 0.10 0.00 90 1014.2
20260510145624 60 128 0.0 2.0 0.00 0.10 0.00 90 1014.1
20260510145519 60 104 1.0 2.0 0.00 0.10 0.00 90 1014.2
20260510145435 60 63 0.0 1.0 0.00 0.10 0.00 90 1014.3
20260510145327 59 121 1.0 2.0 0.00 0.10 0.00 90 1014.3
20260510145222 59 88 2.0 3.0 0.00 0.10 0.00 90 1014.2
20260510145118 60 84 2.0 3.0 0.00 0.10 0.00 90 1014.3
20260510145050 60 109 2.0 2.0 0.00 0.10 0.00 91 1014.3
20260510144925 60 168 2.0 2.0 0.00 0.10 0.00 91 1014.3
20260510144821 60 188 2.0 3.0 0.00 0.10 0.00 91 1014.4
20260510144716 60 240 1.0 3.0 0.00 0.10 0.00 91 1014.5
20260510144628 60 208 1.0 5.0 0.00 0.10 0.00 91 1014.3
20260510144524 60 190 2.0 5.0 0.00 0.10 0.00 91 1014.3
20260510144420 60 207 1.0 2.0 0.00 0.10 0.00 91 1014.3
20260510144315 60 185 2.0 3.0 0.00 0.10 0.00 92 1014.3
20260510144227 59 191 2.0 3.0 0.00 0.10 0.00 92 1014.3
20260510144142 59 184 2.0 3.0 0.00 0.10 0.00 92 1014.3
20260510144038 59 201 1.0 2.0 0.00 0.10 0.00 92 1014.4
20260510143949 59 155 2.0 3.0 0.00 0.10 0.00 92 1014.4
20260510143825 59 166 2.0 3.0 0.00 0.10 0.00 92 1014.2
20260510143721 59 128 1.0 2.0 0.00 0.10 0.00 93 1014.2
20260510143616 59 220 1.0 2.0 0.00 0.10 0.00 93 1014.4
20260510143528 59 296 0.0 2.0 0.00 0.10 0.00 93 1014.3
20260510143423 59 189 1.0 2.0 0.00 0.10 0.00 93 1014.3
20260510143319 59 0.0 2.0 0.00 0.10 0.00 93 1014.3
20260510143231 59 175 1.0 2.0 0.00 0.10 0.00 93 1014.3
20260510143126 59 195 2.0 4.0 0.00 0.10 0.00 94 1014.3
20260510143022 59 169 1.0 3.0 0.00 0.10 0.00 94 1014.0
20260510142917 58 71 2.0 3.0 0.00 0.10 0.00 94 1014.1
20260510142829 58 67 1.0 2.0 0.00 0.10 0.00 94 1014.1
20260510142725 58 62 1.0 2.0 0.00 0.10 0.00 95 1013.9
20260510142620 58 0.0 1.0 0.00 0.10 0.00 95 1014.0
20260510142516 58 157 1.0 2.0 0.00 0.10 0.00 95 1014.0
20260510142428 58 101 2.0 2.0 0.00 0.10 0.00 95 1014.1
20260510142343 58 87 1.0 2.0 0.00 0.10 0.00 95 1014.1
20260510142259 57 0.0 2.0 0.00 0.10 0.00 95 1014.0
20260510142131 57 125 1.0 2.0 0.00 0.10 0.00 95 1014.1
20260510142046 57 197 1.0 2.0 0.00 0.10 0.00 95 1014.1
20260510141922 57 125 1.0 3.0 0.00 0.10 0.00 96 1014.0
20260510141837 57 193 1.0 3.0 0.00 0.10 0.00 96 1014.1
20260510141749 57 189 2.0 2.0 0.00 0.10 0.00 96 1014.1
20260510141625 57 188 2.0 4.0 0.00 0.10 0.00 96 1014.1
20260510141520 57 142 1.0 2.0 0.00 0.10 0.00 96 1014.4
20260510141416 57 181 2.0 4.0 0.00 0.10 0.00 96 1014.2
20260510141328 57 192 3.0 5.0 0.00 0.10 0.00 97 1014.2
20260510141243 57 188 3.0 4.0 0.00 0.10 0.00 97 1014.0
20260510141120 57 176 2.0 2.0 0.00 0.10 0.00 97 1014.1
20260510141031 57 172 3.0 4.0 0.00 0.10 0.00 97 1014.1
20260510140926 57 213 1.0 3.0 0.00 0.10 0.00 98 1014.3
20260510140822 57 0.0 1.0 0.00 0.10 0.00 98 1014.2
20260510140718 57 209 1.0 2.0 0.00 0.10 0.00 98 1014.3
20260510140650 57 210 1.0 2.0 0.00 0.10 0.00 98 1014.3
20260510140525 57 275 0.0 2.0 0.00 0.10 0.00 98 1014.0
20260510140440 56 0.0 1.0 0.00 0.10 0.00 98 1014.1
20260510140316 57 94 1.0 2.0 0.00 0.10 0.00 98 1014.1
20260510140228 57 189 1.0 3.0 0.00 0.10 0.00 98 1014.0
20260510140123 57 164 0.0 2.0 0.00 0.10 0.00 99 1014.0
20260510140019 57 136 1.0 2.0 0.00 0.10 0.00 99 1014.0
20260510135931 56 141 1.0 2.0 0.00 0.10 0.00 99 1014.0
20260510135826 56 186 0.0 2.0 0.00 0.10 0.00 99 1014.1
20260510135722 56 143 1.0 2.0 0.00 0.10 0.00 99 1014.1
20260510135618 56 155 1.0 2.0 0.00 0.10 0.00 99 1013.9
20260510135529 56 148 2.0 3.0 0.00 0.10 0.00 99 1014.0
20260510135425 56 178 2.0 3.0 0.00 0.10 0.00 99 1013.9
20260510135320 56 172 2.0 2.0 0.00 0.10 0.00 99 1014.0
20260510135216 56 157 1.0 2.0 0.00 0.10 0.00 99 1014.0
20260510135128 56 176 1.0 2.0 0.00 0.10 0.00 99 1013.9
20260510135043 56 153 1.0 2.0 0.00 0.10 0.00 99 1013.9
20260510134919 56 208 1.0 2.0 0.00 0.10 0.00 99 1014.0
20260510134831 56 157 1.0 3.0 0.00 0.10 0.00 99 1014.0
20260510134726 56 181 3.0 4.0 0.00 0.10 0.00 99 1013.8
20260510134622 56 158 1.0 2.0 0.00 0.10 0.00 99 1014.1
20260510134557 56 144 1.0 2.0 0.00 0.10 0.00 99 1014.1
20260510134429 56 157 1.0 2.0 0.00 0.10 0.00 99 1014.0
20260510134325 55 0.0 1.0 0.00 0.10 0.00 99 1014.0
20260510134220 55 0.0 2.0 0.00 0.10 0.00 99 1014.2
20260510134136 55 158 2.0 2.0 0.00 0.10 0.00 99 1014.3
20260510134027 55 154 2.0 2.0 0.00 0.10 0.00 99 1014.1
20260510133923 55 148 1.0 2.0 0.00 0.10 0.00 99 1014.1
20260510133818 55 292 0.0 2.0 0.00 0.10 0.00 99 1014.0
20260510133750 55 207 1.0 2.0 0.00 0.10 0.00 99 1014.2
20260510133626 55 125 1.0 2.0 0.00 0.10 0.00 99 1014.1
20260510133542 55 114 1.0 2.0 0.00 0.10 0.00 99 1014.0
20260510133417 55 166 2.0 3.0 0.00 0.10 0.00 99 1014.1
20260510133349 55 172 2.0 4.0 0.00 0.10 0.00 99 1014.2
20260510133224 55 183 2.0 4.0 0.00 0.10 0.00 99 1014.2
20260510133120 55 181 2.0 3.0 0.00 0.10 0.00 99 1014.3
20260510133015 55 178 2.0 2.0 0.00 0.10 0.00 99 1014.3
20260510132927 55 167 2.0 3.0 0.00 0.10 0.00 99 1014.3
20260510132822 55 134 1.0 3.0 0.00 0.10 0.00 99 1014.2
20260510132718 55 188 3.0 3.0 0.00 0.10 0.00 99 1014.3
20260510132630 55 175 2.0 3.0 0.00 0.10 0.00 99 1014.3
20260510132526 55 124 2.0 2.0 0.00 0.10 0.00 99 1014.1
20260510132421 55 151 1.0 2.0 0.00 0.10 0.00 99 1014.0
20260510132317 55 140 1.0 2.0 0.00 0.10 0.00 99 1014.1
20260510132229 55 189 1.0 2.0 0.00 0.10 0.00 99 1014.1
20260510132124 55 198 2.0 3.0 0.00 0.10 0.00 99 1014.1
20260510132040 55 207 1.0 3.0 0.00 0.10 0.00 99 1014.0
20260510131915 55 89 1.0 2.0 0.00 0.10 0.00 99 1013.9
20260510131827 55 66 0.0 2.0 0.00 0.10 0.00 99 1014.1
20260510131723 55 326 1.0 2.0 0.00 0.10 0.00 99 1014.0
20260510131639 55 161 1.0 2.0 0.00 0.10 0.00 99 1013.9
20260510131530 55 179 2.0 3.0 0.00 0.10 0.00 99 1013.9
20260510131426 55 0.0 1.0 0.00 0.10 0.00 99 1014.0
20260510131321 55 209 1.0 2.0 0.00 0.10 0.00 99 1014.0
20260510131217 55 246 1.0 2.0 0.00 0.10 0.00 99 1014.0
20260510131129 55 164 1.0 2.0 0.00 0.10 0.00 99 1013.9
20260510131024 55 203 1.0 2.0 0.00 0.10 0.00 99 1013.9
20260510130920 55 254 0.0 2.0 0.00 0.10 0.00 99 1013.7
20260510130836 55 132 2.0 2.0 0.00 0.10 0.00 99 1013.8
20260510130727 55 193 2.0 4.0 0.00 0.10 0.00 99 1013.9
20260510130623 55 176 3.0 4.0 0.00 0.10 0.00 99 1013.8
20260510130519 55 174 3.0 4.0 0.00 0.10 0.00 99 1014.0
20260510130430 55 166 2.0 3.0 0.00 0.10 0.00 99 1014.0
20260510130326 55 200 1.0 3.0 0.00 0.10 0.00 99 1013.9
20260510130222 55 186 1.0 2.0 0.00 0.10 0.00 99 1013.9
20260510130117 55 180 1.0 2.0 0.00 0.10 0.00 99 1013.7
20260510130029 55 28 1.0 2.0 0.00 0.10 0.00 99 1013.7
20260510125925 55 108 2.0 3.0 0.00 0.10 0.00 99 1013.6
20260510125820 55 140 2.0 3.0 0.00 0.10 0.00 99 1013.7
20260510125716 55 184 2.0 4.0 0.00 0.10 0.00 99 1013.7
20260510125628 55 179 2.0 3.0 0.00 0.10 0.00 99 1013.6
20260510125523 55 157 1.0 2.0 0.00 0.10 0.00 99 1013.7
20260510125419 55 164 1.0 3.0 0.00 0.10 0.00 99 1013.7
20260510125330 55 138 1.0 2.0 0.00 0.10 0.00 99 1013.7
20260510125226 55 114 1.0 2.0 0.00 0.10 0.00 99 1013.7
20260510125122 55 127 1.0 2.0 0.00 0.10 0.00 99 1013.8
20260510125057 54 136 1.0 2.0 0.00 0.10 0.00 99 1013.7
20260510124929 54 146 0.0 2.0 0.00 0.10 0.00 99 1013.9
20260510124845 54 173 1.0 2.0 0.00 0.10 0.00 99 1013.6
20260510124820 54 149 1.0 1.0 0.00 0.10 0.00 99 1013.6
20260510124656 54 339 0.0 1.0 0.00 0.10 0.00 99 1013.6
20260510124528 54 174 1.0 2.0 0.00 0.10 0.00 99 1013.5
20260510124503 54 247 2.0 3.0 0.00 0.10 0.00 99 1013.6
20260510124319 54 92 2.0 2.0 0.00 0.11 0.00 99 1013.5
20260510124231 54 122 0.0 2.0 0.00 0.11 0.00 99 1013.5
20260510124126 54 0.0 2.0 0.00 0.11 0.00 99 1013.4
20260510124042 54 322 0.0 2.0 0.00 0.11 0.00 99 1013.7
20260510123918 54 237 1.0 1.0 0.00 0.11 0.00 99 1013.4
20260510123829 54 159 1.0 3.0 0.00 0.11 0.00 99 1013.6
20260510123725 54 196 1.0 2.0 0.00 0.11 0.00 99 1013.5
20260510123621 54 154 0.0 2.0 0.00 0.11 0.00 99 1013.5
20260510123516 54 218 1.0 3.0 0.00 0.11 0.00 99 1013.5
20260510123428 54 140 1.0 2.0 0.00 0.11 0.00 99 1013.4
20260510123324 54 193 1.0 2.0 0.00 0.11 0.00 99 1013.5
20260510123219 54 232 2.0 2.0 0.00 0.11 0.00 99 1013.4
20260510123115 54 180 2.0 3.0 0.00 0.11 0.00 99 1013.5
20260510123027 54 206 2.0 3.0 0.00 0.11 0.00 99 1013.5
20260510122942 54 171 1.0 3.0 0.00 0.11 0.00 99 1013.4
20260510122818 54 171 1.0 2.0 0.00 0.11 0.00 99 1013.4
20260510122729 54 161 2.0 3.0 0.00 0.11 0.00 99 1013.4
20260510122625 54 160 1.0 2.0 0.00 0.11 0.00 99 1013.2
20260510122541 54 73 0.0 2.0 0.00 0.11 0.00 99 1013.4
20260510122417 54 162 1.0 2.0 0.00 0.11 0.00 99 1013.4
20260510122328 54 167 1.0 3.0 0.00 0.11 0.00 99 1013.4
20260510122244 54 112 2.0 3.0 0.00 0.11 0.00 99 1013.3
20260510122119 54 65 1.0 2.0 0.00 0.11 0.00 99 1013.3
20260510122031 54 70 2.0 3.0 0.00 0.11 0.00 99 1013.4
20260510121927 54 82 2.0 3.0 0.00 0.11 0.00 99 1013.3
20260510121822 54 98 1.0 2.0 0.00 0.11 0.00 99 1013.5
20260510121718 54 93 1.0 3.0 0.00 0.11 0.00 99 1013.4
20260510121650 54 81 1.0 2.0 0.00 0.11 0.00 99 1013.4
20260510121545 54 0.0 1.0 0.00 0.11 0.00 99 1013.3
20260510121421 54 0.0 1.0 0.00 0.11 0.00 99 1013.3
20260510121317 54 163 0.0 2.0 0.00 0.11 0.00 99 1013.4
20260510121228 54 175 0.0 2.0 0.00 0.11 0.00 99 1013.3
20260510121124 54 116 1.0 2.0 0.00 0.11 0.00 99 1013.4
20260510121020 53 126 0.0 1.0 0.00 0.11 0.00 99 1013.3
20260510120915 53 156 1.0 2.0 0.00 0.11 0.00 99 1013.3
20260510120827 53 143 2.0 2.0 0.00 0.11 0.00 99 1013.2
20260510120722 54 164 2.0 3.0 0.00 0.11 0.00 99 1013.2
20260510120618 54 164 2.0 3.0 0.00 0.11 0.00 99 1013.3
20260510120530 54 154 1.0 2.0 0.00 0.11 0.00 99 1013.3
20260510120425 54 112 2.0 3.0 0.00 0.11 0.00 99 1013.3
20260510120321 54 203 1.0 2.0 0.00 0.11 0.00 99 1013.0
20260510120216 54 177 1.0 2.0 0.00 0.11 0.00 99 1013.3
20260510120128 54 148 1.0 2.0 0.00 0.11 0.00 99 1013.2
20260510120024 54 130 1.0 2.0 0.00 0.11 0.00 99 1013.3
20260510115919 54 132 1.0 2.0 0.00 0.11 0.00 99 1013.2
20260510115815 54 133 1.0 2.0 0.00 0.11 0.00 99 1013.2
20260510115727 53 114 1.0 2.0 0.00 0.11 0.00 99 1013.2
20260510115642 53 129 1.0 2.0 0.00 0.11 0.00 99 1013.3
20260510115518 53 152 1.0 2.0 0.00 0.11 0.00 99 1013.2
20260510115510 53 147 2.0 3.0 0.00 0.11 0.00 99 1013.2
20260510115325 53 144 2.0 3.0 0.00 0.11 0.00 99 1013.5
20260510115221 53 138 2.0 3.0 0.00 0.11 0.00 99 1013.2
20260510115136 54 156 2.0 3.0 0.00 0.11 0.00 99 1013.4
20260510115028 54 168 0.0 2.0 0.00 0.11 0.00 99 1013.1
20260510114924 54 178 1.0 1.0 0.00 0.11 0.00 99 1013.4
20260510114819 54 144 1.0 3.0 0.00 0.11 0.00 99 1013.2
20260510114715 54 156 1.0 2.0 0.00 0.11 0.00 99 1013.2
20260510114627 54 135 0.0 2.0 0.00 0.11 0.00 99 1013.2
20260510114523 53 135 1.0 2.0 0.00 0.11 0.00 99 1013.2
20260510114418 53 96 1.0 2.0 0.00 0.11 0.00 99 1013.2
20260510114330 53 131 1.0 2.0 0.00 0.11 0.00 99 1013.2
20260510114226 53 343 1.0 2.0 0.00 0.11 0.00 99 1013.1
20260510114121 53 153 1.0 2.0 0.00 0.11 0.00 99 1013.3
20260510114017 53 171 0.0 2.0 0.00 0.11 0.00 99 1013.3
20260510113929 53 168 2.0 3.0 0.00 0.11 0.00 99 1013.1
20260510113824 53 180 2.0 2.0 0.00 0.11 0.00 99 1013.1
20260510113720 53 181 1.0 2.0 0.00 0.11 0.00 99 1013.2
20260510113615 53 167 1.0 3.0 0.00 0.11 0.00 99 1013.2
20260510113527 53 167 2.0 2.0 0.00 0.11 0.00 99 1013.3
20260510113423 53 150 2.0 2.0 0.00 0.11 0.00 99 1013.2
20260510113319 53 153 1.0 2.0 0.00 0.11 0.00 99 1013.3
20260510113230 53 141 2.0 2.0 0.00 0.11 0.00 99 1013.3
20260510113126 53 140 2.0 2.0 0.00 0.11 0.00 99 1013.1
20260510113021 53 120 1.0 2.0 0.00 0.11 0.00 99 1013.2
20260510112917 53 98 1.0 1.0 0.00 0.11 0.00 99 1013.1
20260510112849 53 121 0.0 2.0 0.00 0.11 0.00 99 1013.4
20260510112725 53 16 0.0 1.0 0.00 0.11 0.00 99 1013.3
20260510112620 53 15 1.0 2.0 0.00 0.11 0.00 99 1013.0
20260510112516 53 0.0 1.0 0.00 0.11 0.00 99 1013.2
20260510112447 53 0.0 1.0 0.00 0.11 0.00 99 1013.3
20260510112343 53 0.0 1.0 0.00 0.11 0.00 99 1013.2
20260510112239 53 128 1.0 1.0 0.00 0.11 0.00 99 1013.2
20260510112130 53 0.0 2.0 0.00 0.11 0.00 99 1013.2
20260510112026 53 171 2.0 2.0 0.00 0.11 0.00 99 1013.0
20260510112022 53 152 1.0 2.0 0.00 0.11 0.00 99 1013.1
20260510111817 53 87 1.0 2.0 0.00 0.11 0.00 99 1013.2
20260510111729 53 65 0.0 2.0 0.00 0.11 0.00 99 1013.2
20260510111625 53 35 1.0 2.0 0.00 0.11 0.00 99 1013.1
20260510111540 53 14 1.0 2.0 0.00 0.11 0.00 99 1013.0
20260510111436 53 0.0 1.0 0.00 0.11 0.00 99 1012.9
20260510111348 53 357 0.0 1.0 0.00 0.11 0.00 99 1012.9
20260510111239 53 170 0.0 1.0 0.00 0.11 0.00 99 1012.8
20260510111031 53 59 0.0 1.0 0.00 0.11 0.00 99 1012.8
20260510110926 53 0.0 1.0 0.00 0.11 0.00 99 1012.7
20260510110822 53 161 1.0 3.0 0.00 0.11 0.00 99 1012.8
20260510110718 53 170 2.0 2.0 0.00 0.11 0.00 99 1012.8
20260510110629 53 133 1.0 2.0 0.00 0.11 0.00 99 1012.7
20260510110525 53 135 1.0 2.0 0.00 0.11 0.00 99 1012.6
20260510110420 53 153 1.0 2.0 0.00 0.11 0.00 99 1012.5
20260510110336 53 241 0.0 1.0 0.00 0.11 0.00 99 1012.7
20260510110228 52 121 0.0 2.0 0.00 0.11 0.00 99 1012.5
20260510110123 52 124 1.0 2.0 0.00 0.11 0.00 99 1012.4
20260510110019 52 82 1.0 2.0 0.00 0.11 0.00 99 1012.5
20260510105931 52 107 2.0 4.0 0.00 0.11 0.00 99 1012.7
20260510105826 53 136 2.0 4.0 0.00 0.11 0.00 99 1012.6
20260510105722 53 125 2.0 3.0 0.00 0.11 0.00 99 1012.5
20260510105617 53 127 1.0 2.0 0.00 0.11 0.00 99 1012.5
20260510105529 52 137 0.0 2.0 0.00 0.11 0.00 99 1012.6
20260510105425 52 103 1.0 2.0 0.00 0.11 0.00 99 1012.3
20260510105320 52 91 1.0 2.0 0.00 0.11 0.00 99 1012.3
20260510105216 52 0.0 2.0 0.00 0.11 0.00 99 1012.4
20260510105127 52 118 1.0 2.0 0.00 0.11 0.00 99 1012.4
20260510105023 52 127 2.0 3.0 0.00 0.11 0.00 99 1012.2
20260510104939 52 110 2.0 2.0 0.00 0.11 0.00 99 1012.3
20260510104831 52 115 2.0 3.0 0.00 0.11 0.00 99 1012.5
20260510104726 52 102 1.0 2.0 0.00 0.11 0.00 99 1012.5
20260510104642 52 109 0.0 2.0 0.00 0.11 0.00 99 1012.5
20260510104538 52 109 1.0 2.0 0.00 0.11 0.00 99 1012.6
20260510104429 52 161 0.0 2.0 0.00 0.11 0.00 99 1012.5
20260510104325 52 160 1.0 2.0 0.00 0.11 0.00 99 1012.4
20260510104220 52 155 0.0 2.0 0.00 0.11 0.00 99 1012.5
20260510104116 52 123 1.0 2.0 0.00 0.11 0.00 99 1012.4
20260510104048 52 123 0.0 2.0 0.00 0.11 0.00 99 1012.7
20260510103943 52 149 0.0 2.0 0.00 0.11 0.00 99 1012.6
20260510103819 52 143 1.0 2.0 0.00 0.11 0.00 99 1012.4
20260510103731 52 67 1.0 2.0 0.00 0.11 0.00 99 1012.3
20260510103626 52 126 0.0 2.0 0.00 0.11 0.00 99 1012.2
20260510103542 52 96 0.0 2.0 0.00 0.11 0.00 99 1012.6
20260510103437 52 106 0.0 1.0 0.00 0.11 0.00 99 1012.6
20260510103349 52 130 0.0 2.0 0.00 0.11 0.00 99 1012.5
20260510103225 52 0.0 2.0 0.00 0.11 0.00 99 1012.5
20260510103121 52 0.0 2.0 0.00 0.11 0.00 99 1012.6
20260510103056 52 129 0.0 2.0 0.00 0.11 0.00 99 1012.5
20260510102948 52 0.0 1.0 0.00 0.11 0.00 99 1012.6
20260510102824 52 294 0.0 2.0 0.00 0.11 0.00 99 1012.6
20260510102719 52 0.0 2.0 0.00 0.11 0.00 99 1012.6
20260510102631 52 0.0 2.0 0.00 0.11 0.00 99 1012.5
20260510102547 52 121 0.0 2.0 0.00 0.11 0.00 99 1012.5
20260510102422 52 106 1.0 2.0 0.00 0.11 0.00 99 1012.5
20260510102318 52 82 0.0 2.0 0.00 0.11 0.00 99 1012.6
20260510102230 52 108 1.0 3.0 0.00 0.11 0.00 99 1012.5
20260510102125 52 88 2.0 2.0 0.00 0.11 0.00 99 1012.5
20260510102021 52 115 1.0 2.0 0.00 0.11 0.00 99 1012.8
20260510101916 52 95 1.0 2.0 0.00 0.11 0.00 99 1012.6
20260510101848 52 0.0 2.0 0.00 0.11 0.00 99 1012.7
20260510101724 52 89 1.0 2.0 0.00 0.11 0.00 99 1012.6
20260510101619 52 131 1.0 2.0 0.00 0.11 0.00 99 1012.6
20260510101535 52 115 1.0 2.0 0.00 0.11 0.00 99 1012.5
20260510101447 52 98 2.0 3.0 0.00 0.11 0.00 99 1012.5
20260510101322 52 112 2.0 3.0 0.00 0.11 0.00 99 1012.5
20260510101218 52 111 2.0 2.0 0.00 0.11 0.00 99 1012.5
20260510101130 52 117 1.0 2.0 0.00 0.11 0.00 99 1012.5
20260510101026 52 82 0.0 2.0 0.00 0.11 0.00 99 1012.6
20260510100921 52 146 1.0 2.0 0.00 0.11 0.00 99 1012.7
20260510100837 52 88 0.0 2.0 0.00 0.11 0.00 99 1012.6
20260510100728 52 178 1.0 2.0 0.00 0.11 0.00 99 1012.7
20260510100624 52 0.0 2.0 0.00 0.11 0.00 99 1012.5
20260510100519 52 0.0 2.0 0.00 0.11 0.00 99 1012.6
20260510100415 52 171 0.0 1.0 0.00 0.11 0.00 99 1012.7
20260510100327 52 22 1.0 2.0 0.00 0.11 0.00 99 1012.4
20260510100222 52 0 0.0 2.0 0.00 0.11 0.00 99 1012.4
20260510100118 52 44 0.0 1.0 0.00 0.11 0.00 99 1012.3
20260510100030 52 0.0 2.0 0.00 0.11 0.00 99 1012.4
20260510095925 52 95 0.0 2.0 0.00 0.11 0.00 99 1012.5
20260510095821 52 58 1.0 1.0 0.00 0.11 0.00 99 1012.5
20260510095717 52 0.0 2.0 0.00 0.11 0.00 99 1012.5
20260510095628 52 35 1.0 2.0 0.00 0.11 0.00 99 1012.4
20260510095524 52 53 0.0 2.0 0.00 0.11 0.00 99 1012.4
20260510095420 52 10 0.0 2.0 0.00 0.11 0.00 99 1012.6
20260510095315 52 104 0.0 1.0 0.00 0.11 0.00 99 1012.5
20260510095227 52 106 1.0 1.0 0.00 0.11 0.00 99 1012.6
20260510095122 52 113 1.0 2.0 0.00 0.11 0.00 99 1012.6
20260510095018 52 125 0.0 2.0 0.00 0.11 0.00 99 1012.5
20260510094930 52 133 1.0 2.0 0.00 0.11 0.00 99 1012.5
20260510094825 52 0.0 2.0 0.00 0.11 0.00 99 1012.4
20260510094721 52 122 0.0 1.0 0.00 0.11 0.00 99 1012.5
20260510094617 52 98 2.0 2.0 0.00 0.11 0.00 99 1012.6
20260510094528 52 0.0 2.0 0.00 0.11 0.00 99 1012.5
20260510094424 52 92 1.0 2.0 0.00 0.11 0.00 99 1012.6
20260510094320 52 66 1.0 2.0 0.00 0.11 0.00 99 1012.5
20260510094216 52 79 2.0 3.0 0.00 0.11 0.00 99 1012.7
20260510094127 52 84 1.0 2.0 0.00 0.11 0.00 99 1012.6
20260510094023 52 110 0.0 2.0 0.00 0.11 0.00 99 1012.6
20260510093919 52 0.0 2.0 0.00 0.11 0.00 99 1012.6
20260510093910 52 100 0.0 2.0 0.00 0.11 0.00 99 1012.5
20260510093726 52 288 0.0 1.0 0.00 0.11 0.00 99 1012.6
20260510093621 52 69 1.0 2.0 0.00 0.11 0.00 99 1012.6
20260510093517 52 65 1.0 2.0 0.00 0.11 0.00 99 1012.5
20260510093429 52 85 1.0 2.0 0.00 0.11 0.00 99 1012.7
20260510093324 52 94 1.0 3.0 0.00 0.11 0.00 99 1012.6
20260510093220 52 57 0.0 3.0 0.00 0.11 0.00 99 1012.8
20260510093115 52 67 1.0 3.0 0.00 0.11 0.00 99 1012.7
20260510093027 52 41 1.0 3.0 0.00 0.11 0.00 99 1012.7
20260510092943 52 17 1.0 2.0 0.00 0.11 0.00 99 1012.6
20260510092839 52 0.0 2.0 0.00 0.11 0.00 99 1012.8
20260510092730 52 328 0.0 2.0 0.00 0.11 0.00 99 1012.7
20260510092626 52 76 2.0 3.0 0.00 0.11 0.00 99 1012.9
20260510092522 52 66 1.0 3.0 0.00 0.11 0.00 99 1012.8
20260510092417 52 86 1.0 2.0 0.00 0.11 0.00 99 1012.8
20260510092329 52 86 2.0 2.0 0.00 0.11 0.00 99 1012.8
20260510092224 52 89 1.0 2.0 0.00 0.11 0.00 99 1012.8
20260510092120 52 121 1.0 2.0 0.00 0.11 0.00 99 1012.9
20260510092016 52 148 1.0 2.0 0.00 0.11 0.00 99 1012.7
20260510091927 52 0.0 2.0 0.00 0.11 0.00 99 1012.8
20260510091823 52 0.0 2.0 0.00 0.11 0.00 99 1012.9
20260510091719 52 78 1.0 3.0 0.00 0.11 0.00 99 1012.8
20260510091630 52 72 1.0 2.0 0.00 0.11 0.00 99 1012.7
20260510091526 52 299 0.0 2.0 0.00 0.11 0.00 99 1012.9
20260510091442 52 62 2.0 3.0 0.00 0.11 0.00 99 1012.7
20260510091317 52 107 2.0 2.0 0.00 0.11 0.00 99 1013.0
20260510091229 52 54 1.0 2.0 0.00 0.11 0.00 99 1012.9
20260510091125 52 0.0 2.0 0.00 0.11 0.00 99 1013.1
20260510091040 52 43 1.0 2.0 0.00 0.11 0.00 99 1012.9
20260510090916 52 182 0.0 2.0 0.00 0.11 0.00 99 1013.0
20260510090828 52 89 1.0 2.0 0.00 0.11 0.00 99 1013.2
20260510090743 52 76 2.0 3.0 0.00 0.11 0.00 99 1013.0
20260510090619 52 84 1.0 2.0 0.00 0.11 0.00 99 1013.1
20260510090531 52 0.0 2.0 0.00 0.11 0.00 99 1013.1
20260510090426 52 121 1.0 2.0 0.00 0.11 0.00 99 1013.0
20260510090322 52 120 1.0 2.0 0.00 0.11 0.00 99 1012.9
20260510090217 52 47 0.0 2.0 0.00 0.11 0.00 99 1013.0
20260510090129 52 49 0.0 2.0 0.00 0.11 0.00 99 1012.9
20260510090045 52 23 1.0 3.0 0.00 0.11 0.00 99 1012.9
20260510085920 52 72 1.0 2.0 0.00 0.11 0.00 99 1012.9
20260510085816 52 36 1.0 2.0 0.00 0.11 0.00 99 1012.9
20260510085748 51 5 1.0 2.0 0.00 0.11 0.00 99 1013.0
20260510085623 51 0.0 2.0 0.00 0.11 0.00 99 1012.9
20260510085519 51 64 1.0 2.0 0.00 0.11 0.00 99 1012.9
20260510085431 51 116 0.0 2.0 0.00 0.11 0.00 99 1013.0
20260510085327 51 106 2.0 3.0 0.00 0.11 0.00 99 1013.0
20260510085222 51 65 1.0 2.0 0.00 0.11 0.00 99 1013.0
20260510085158 51 113 1.0 2.0 0.00 0.11 0.00 99 1013.0
20260510085029 51 132 0.0 2.0 0.00 0.11 0.00 99 1013.0
20260510084925 51 121 1.0 2.0 0.00 0.11 0.00 99 1012.8
20260510084821 51 27 1.0 2.0 0.00 0.11 0.00 99 1012.9
20260510084736 51 196 1.0 2.0 0.00 0.11 0.00 99 1012.9
20260510084628 51 44 1.0 2.0 0.00 0.11 0.00 99 1012.7
20260510084524 51 13 1.0 4.0 0.00 0.11 0.00 99 1012.9
20260510084419 51 356 1.0 4.0 0.00 0.11 0.00 99 1012.9
20260510084315 51 33 1.0 2.0 0.00 0.11 0.00 99 1013.0
20260510084227 51 21 2.0 3.0 0.00 0.11 0.00 99 1013.0
20260510084122 51 359 2.0 3.0 0.00 0.11 0.00 99 1013.0
20260510084018 51 19 2.0 3.0 0.00 0.11 0.00 99 1013.1
20260510083930 51 13 2.0 3.0 0.00 0.11 0.00 99 1013.0
20260510083825 51 66 1.0 2.0 0.00 0.11 0.00 99 1012.7
20260510083721 51 127 2.0 3.0 0.00 0.11 0.00 99 1012.6
20260510083617 51 134 2.0 4.0 0.00 0.11 0.00 99 1012.8
20260510083529 51 124 2.0 3.0 0.00 0.11 0.00 99 1012.7
20260510083444 51 193 1.0 2.0 0.00 0.11 0.00 99 1012.6
20260510083320 51 44 0.0 2.0 0.00 0.11 0.00 99 1012.9
20260510083216 52 350 2.0 3.0 0.00 0.11 0.00 99 1012.8
20260510083127 52 169 2.0 3.0 0.00 0.11 0.00 99 1012.8
20260510083023 52 357 1.0 3.0 0.00 0.11 0.00 99 1012.6
20260510082918 52 350 1.0 2.0 0.00 0.11 0.00 99 1012.5
20260510082830 51 346 1.0 2.0 0.00 0.11 0.00 99 1012.5
20260510082726 51 358 1.0 2.0 0.00 0.11 0.00 99 1012.5
20260510082622 51 356 1.0 1.0 0.00 0.11 0.00 99 1012.3
20260510082517 51 0.0 2.0 0.00 0.11 0.00 99 1012.5
20260510082429 51 78 1.0 2.0 0.00 0.11 0.00 99 1012.3
20260510082325 51 115 0.0 1.0 0.00 0.11 0.00 99 1012.4
20260510082220 51 61 0.0 1.0 0.00 0.11 0.00 99 1012.3
20260510082116 51 0.0 0.0 0.00 0.11 0.00 99 1012.4
20260510082028 51 130 0.0 1.0 0.00 0.11 0.00 99 1012.3
20260510081923 51 161 1.0 2.0 0.00 0.11 0.00 99 1012.3
20260510081819 51 170 1.0 2.0 0.00 0.11 0.00 99 1012.3
20260510081730 51 148 1.0 2.0 0.00 0.11 0.00 99 1012.3
20260510081626 51 124 1.0 2.0 0.00 0.11 0.00 99 1012.3
20260510081522 51 116 1.0 3.0 0.00 0.11 0.00 99 1012.2
20260510081417 51 98 1.0 2.0 0.00 0.11 0.00 99 1012.3
20260510081329 51 100 1.0 2.0 0.00 0.11 0.00 99 1012.0
20260510081224 51 0.0 1.0 0.00 0.11 0.00 99 1012.2
20260510081120 51 95 0.0 1.0 0.00 0.11 0.00 99 1012.2
20260510081016 51 0.0 1.0 0.00 0.11 0.00 99 1012.4
20260510080948 51 107 0.0 1.0 0.00 0.11 0.00 99 1012.3
20260510080823 51 0.0 1.0 0.00 0.11 0.00 99 1012.3
20260510080719 51 0.0 2.0 0.00 0.11 0.00 99 1012.1
20260510080631 51 108 0.0 2.0 0.00 0.11 0.00 99 1012.1
20260510080526 51 101 1.0 2.0 0.00 0.11 0.00 99 1012.2
20260510080442 51 119 1.0 2.0 0.00 0.11 0.00 99 1012.1
20260510080317 51 127 1.0 2.0 0.00 0.11 0.00 99 1012.3
20260510080229 51 144 1.0 2.0 0.00 0.11 0.00 99 1012.1
20260510080125 51 135 0.0 2.0 0.00 0.11 0.00 99 1012.0
20260510080020 51 81 0.0 2.0 0.00 0.11 0.00 99 1012.1
20260510075936 51 51 0.0 2.0 0.00 0.11 0.00 99 1012.1
20260510075829 51 110 0.0 2.0 0.00 0.11 0.00 99 1011.9
20260510075724 51 0.0 2.0 0.00 0.11 0.00 99 1012.1
20260510075639 51 71 1.0 2.0 0.00 0.11 0.00 99 1012.2
20260510075531 51 63 1.0 2.0 0.00 0.11 0.00 99 1012.1
20260510075427 51 86 1.0 2.0 0.00 0.11 0.00 99 1012.2
20260510075322 51 122 0.0 2.0 0.00 0.11 0.00 99 1012.0
20260510075218 51 0.0 2.0 0.00 0.11 0.00 99 1012.1
20260510075130 51 50 1.0 2.0 0.00 0.11 0.00 99 1012.0
20260510075025 51 80 1.0 1.0 0.00 0.11 0.00 99 1012.0
20260510074921 51 97 0.0 1.0 0.00 0.11 0.00 99 1012.1
20260510074816 51 32 0.0 2.0 0.00 0.11 0.00 99 1012.0
20260510074728 51 156 1.0 2.0 0.00 0.11 0.00 99 1012.1
20260510074624 51 100 1.0 1.0 0.00 0.11 0.00 99 1012.0
20260510074520 51 0.0 1.0 0.00 0.11 0.00 99 1011.9
20260510074415 51 138 1.0 2.0 0.00 0.11 0.00 99 1011.9
20260510074327 51 0.0 2.0 0.00 0.11 0.00 99 1012.0
20260510074222 51 0.0 0.0 0.00 0.11 0.00 99 1012.0
20260510074118 51 131 0.0 2.0 0.00 0.11 0.00 99 1012.0
20260510074030 51 0.0 1.0 0.00 0.11 0.00 99 1011.9
20260510073925 51 315 0.0 2.0 0.00 0.11 0.00 99 1012.1
20260510073821 51 14 1.0 2.0 0.00 0.11 0.00 99 1012.0
20260510073716 51 7 0.0 2.0 0.00 0.11 0.00 99 1011.9
20260510073628 51 14 2.0 2.0 0.00 0.11 0.00 99 1011.9
20260510073524 51 82 1.0 2.0 0.00 0.11 0.00 99 1011.9
20260510073420 51 59 1.0 2.0 0.00 0.11 0.00 99 1012.1
20260510073315 51 101 2.0 2.0 0.00 0.11 0.00 99 1012.0
20260510073227 51 39 1.0 2.0 0.00 0.11 0.00 99 1011.9
20260510073142 51 120 1.0 2.0 0.00 0.11 0.00 99 1012.0
20260510073018 51 44 0.0 2.0 0.00 0.11 0.00 99 1011.9
20260510072930 51 116 0.0 2.0 0.00 0.11 0.00 99 1011.9
20260510072906 51 187 1.0 2.0 0.00 0.11 0.00 99 1011.9
20260510072721 51 0.0 2.0 0.00 0.11 0.00 99 1011.9
20260510072617 51 161 0.0 2.0 0.00 0.11 0.00 99 1011.8
20260510072529 51 140 1.0 2.0 0.00 0.11 0.00 99 1011.9
20260510072424 51 66 1.0 2.0 0.00 0.11 0.00 99 1011.9
20260510072320 51 79 0.0 2.0 0.00 0.11 0.00 99 1011.9
20260510072215 51 63 1.0 2.0 0.00 0.11 0.00 99 1011.8
20260510072207 51 40 1.0 2.0 0.00 0.11 0.00 99 1011.8
20260510072023 51 55 1.0 2.0 0.00 0.11 0.00 99 1011.9
20260510071918 51 30 1.0 2.0 0.00 0.11 0.00 99 1012.0
20260510071830 51 50 1.0 2.0 0.00 0.11 0.00 99 1012.0
20260510071726 51 78 1.0 2.0 0.00 0.11 0.00 99 1012.0
20260510071622 51 63 1.0 2.0 0.00 0.11 0.00 99 1011.8
20260510071517 51 0.0 1.0 0.00 0.11 0.00 99 1011.9
20260510071429 51 90 1.0 2.0 0.00 0.11 0.00 99 1012.0
20260510071324 51 102 1.0 2.0 0.00 0.11 0.00 99 1011.8
20260510071220 51 100 0.0 1.0 0.00 0.11 0.00 99 1011.9
20260510071116 51 0.0 1.0 0.00 0.11 0.00 99 1011.9
20260510071027 51 76 2.0 3.0 0.00 0.11 0.00 99 1011.9
20260510070923 51 67 2.0 2.0 0.00 0.11 0.00 99 1012.0
20260510070818 51 110 1.0 2.0 0.00 0.11 0.00 99 1012.0
20260510070810 51 132 1.0 2.0 0.00 0.11 0.00 99 1011.9
20260510070626 51 126 1.0 2.0 0.00 0.11 0.00 99 1012.0
20260510070521 51 146 1.0 2.0 0.00 0.11 0.00 99 1011.9
20260510070417 51 137 1.0 2.0 0.00 0.11 0.00 99 1011.9
20260510070329 51 0.0 1.0 0.00 0.11 0.00 99 1011.9
20260510070244 51 0.0 1.0 0.00 0.11 0.00 99 1011.8
20260510070140 51 63 1.0 2.0 0.00 0.11 0.00 99 1012.0
20260510070016 51 67 1.0 2.0 0.00 0.11 0.00 99 1011.8
20260510065947 51 68 0.0 2.0 0.00 0.11 0.00 99 1011.8
20260510065823 51 85 1.0 3.0 0.00 0.11 0.00 99 1011.9
20260510065718 51 62 1.0 3.0 0.00 0.11 0.00 99 1011.9
20260510065630 51 79 1.0 2.0 0.00 0.11 0.00 99 1011.8
20260510065546 51 95 1.0 2.0 0.00 0.11 0.00 99 1011.8
20260510065422 51 0.0 1.0 0.00 0.11 0.00 99 1012.1
20260510065317 51 0.0 1.0 0.00 0.11 0.00 99 1012.0
20260510065229 51 0.0 1.0 0.00 0.11 0.00 99 1011.8
20260510065124 51 0.0 1.0 0.00 0.11 0.00 99 1011.9
20260510065020 51 0.0 1.0 0.00 0.11 0.00 99 1011.9
20260510064916 51 76 0.0 2.0 0.00 0.11 0.00 99 1011.9
20260510064827 51 110 0.0 2.0 0.00 0.11 0.00 99 1012.0
20260510064723 51 129 1.0 2.0 0.00 0.11 0.00 99 1012.0
20260510064639 51 125 0.0 2.0 0.00 0.11 0.00 99 1011.8
20260510064550 51 105 1.0 2.0 0.00 0.11 0.00 99 1011.8
20260510064506 51 97 0.0 2.0 0.00 0.11 0.00 99 1012.0
20260510064322 51 106 0.0 1.0 0.00 0.11 0.00 99 1012.0
20260510064217 51 23 0.0 2.0 0.00 0.11 0.00 99 1011.9
20260510064129 51 0.0 1.0 0.00 0.11 0.00 99 1012.0
20260510064025 51 0.0 2.0 0.00 0.11 0.00 99 1011.8
20260510063920 51 30 1.0 2.0 0.00 0.11 0.00 99 1011.9
20260510063836 51 34 2.0 2.0 0.00 0.11 0.00 99 1011.8
20260510063728 51 42 2.0 2.0 0.00 0.11 0.00 99 1011.8
20260510063624 51 13 1.0 2.0 0.00 0.11 0.00 99 1011.9
20260510063519 51 41 1.0 3.0 0.00 0.11 0.00 99 1011.8
20260510063451 51 38 1.0 3.0 0.00 0.11 0.00 99 1011.7
20260510063327 51 41 1.0 2.0 0.00 0.11 0.00 99 1011.7
20260510063242 51 39 1.0 3.0 0.00 0.11 0.00 99 1011.7
20260510063118 51 51 1.0 2.0 0.00 0.11 0.00 99 1011.9
20260510063030 51 53 1.0 2.0 0.00 0.11 0.00 99 1011.7
20260510062925 51 46 1.0 2.0 0.00 0.11 0.00 99 1011.7
20260510062821 51 54 1.0 2.0 0.00 0.11 0.00 99 1011.5
20260510062736 51 49 0.0 1.0 0.00 0.11 0.00 99 1011.7
20260510062648 51 0.0 1.0 0.00 0.11 0.00 99 1011.6
20260510062524 51 29 0.0 1.0 0.00 0.11 0.00 99 1011.7
20260510062419 51 58 1.0 2.0 0.00 0.11 0.00 99 1011.5
20260510062315 51 73 1.0 3.0 0.00 0.11 0.00 99 1011.7
20260510062227 51 0.0 2.0 0.00 0.11 0.00 99 1011.7
20260510062122 51 87 1.0 2.0 0.00 0.11 0.00 99 1011.8
20260510062018 51 109 0.0 1.0 0.00 0.11 0.00 99 1011.6
20260510061930 51 80 0.0 1.0 0.00 0.11 0.00 99 1011.6
20260510061825 51 109 0.0 1.0 0.00 0.11 0.00 99 1011.7
20260510061721 51 0.0 1.0 0.00 0.11 0.00 99 1011.6
20260510061617 51 0.0 1.0 0.00 0.11 0.00 99 1011.5
20260510061528 51 0.0 1.0 0.00 0.11 0.00 99 1011.6
20260510061424 51 137 0.0 2.0 0.00 0.11 0.00 99 1011.8
20260510061319 51 132 1.0 2.0 0.00 0.11 0.00 99 1011.5
20260510061215 51 99 0.0 2.0 0.00 0.11 0.00 99 1011.5
20260510061127 51 80 0.0 1.0 0.00 0.11 0.00 99 1011.6
20260510061022 51 0.0 1.0 0.00 0.11 0.00 99 1011.6
20260510060918 51 81 0.0 1.0 0.00 0.11 0.00 99 1011.6
20260510060830 51 89 1.0 1.0 0.00 0.11 0.00 99 1011.6
20260510060725 51 92 1.0 2.0 0.00 0.11 0.00 99 1011.5
20260510060621 51 99 1.0 2.0 0.00 0.11 0.00 99 1011.5
20260510060517 51 109 1.0 2.0 0.00 0.11 0.00 99 1011.6
20260510060428 51 88 1.0 2.0 0.00 0.11 0.00 99 1011.7
20260510060324 51 69 1.0 2.0 0.00 0.11 0.00 99 1011.7
20260510060240 51 52 2.0 2.0 0.00 0.11 0.00 99 1011.7
20260510060115 51 67 2.0 2.0 0.00 0.11 0.00 99 1011.6
20260510060027 51 83 1.0 1.0 0.00 0.11 0.00 99 1011.7
20260510055922 51 78 0.0 1.0 0.00 0.11 0.00 99 1011.7
20260510055818 51 0.0 1.0 0.00 0.11 0.00 99 1011.6
20260510055730 51 0.0 1.0 0.00 0.11 0.00 99 1011.6
20260510055625 51 0.0 1.0 0.00 0.11 0.00 99 1011.8
20260510055521 51 110 0.0 1.0 0.00 0.11 0.00 99 1011.7
20260510055417 51 0.0 1.0 0.00 0.11 0.00 99 1011.9
20260510055328 51 0.0 2.0 0.00 0.11 0.00 99 1011.9
20260510055224 51 102 0.0 1.0 0.00 0.11 0.00 99 1011.8
20260510055120 51 14 0.0 1.0 0.00 0.11 0.00 99 1011.6
20260510055016 51 0.0 1.0 0.00 0.11 0.00 99 1011.7
20260510054927 51 36 0.0 1.0 0.00 0.11 0.00 99 1011.8
20260510054823 51 28 0.0 1.0 0.00 0.11 0.00 99 1012.0
20260510054718 51 153 1.0 2.0 0.00 0.11 0.00 99 1011.6
20260510054630 51 150 1.0 2.0 0.00 0.11 0.00 99 1011.8
20260510054526 51 55 0.0 1.0 0.00 0.11 0.00 99 1011.9
20260510054421 51 110 1.0 2.0 0.00 0.11 0.00 99 1011.8
20260510054409 51 0.0 2.0 0.00 0.11 0.00 99 1011.8
20260510054124 51 121 0.0 2.0 0.00 0.11 0.00 99 1011.7
20260510054020 51 141 1.0 2.0 0.00 0.11 0.00 99 1011.7
20260510053916 51 132 0.0 1.0 0.00 0.11 0.00 99 1011.8
20260510053827 51 148 0.0 1.0 0.00 0.11 0.00 99 1011.7
20260510053723 51 132 0.0 2.0 0.00 0.11 0.00 99 1011.6
20260510053618 51 126 1.0 2.0 0.00 0.11 0.00 99 1011.7
20260510053530 51 112 1.0 1.0 0.00 0.11 0.00 99 1011.7
20260510053426 52 143 1.0 2.0 0.00 0.11 0.00 99 1011.8
20260510053342 52 155 1.0 2.0 0.00 0.11 0.00 99 1011.7
20260510053217 52 131 1.0 2.0 0.00 0.11 0.00 99 1011.7
20260510053129 52 119 0.0 2.0 0.00 0.11 0.00 99 1011.7
20260510053104 52 0.0 1.0 0.00 0.11 0.00 99 1011.6
20260510052920 52 0.0 2.0 0.00 0.11 0.00 99 1011.8
20260510052816 52 104 1.0 2.0 0.00 0.11 0.00 99 1011.8
20260510052727 52 101 1.0 1.0 0.00 0.11 0.00 99 1011.7
20260510052623 52 50 0.0 1.0 0.00 0.11 0.00 99 1011.9
20260510052519 52 0.0 1.0 0.00 0.11 0.00 99 1011.8
20260510052430 52 52 1.0 1.0 0.00 0.11 0.00 99 1011.8
20260510052326 52 0.0 1.0 0.00 0.11 0.00 99 1011.8
20260510052242 52 89 1.0 1.0 0.00 0.11 0.00 99 1011.8
20260510052117 52 93 1.0 1.0 0.00 0.11 0.00 99 1011.7
20260510052029 52 88 1.0 2.0 0.00 0.11 0.00 99 1011.8
20260510051924 52 111 0.0 2.0 0.00 0.11 0.00 99 1011.9
20260510051840 52 85 1.0 2.0 0.00 0.11 0.00 99 1011.8
20260510051716 52 65 1.0 1.0 0.00 0.11 0.00 99 1012.0
20260510051627 52 1 1.0 1.0 0.00 0.11 0.00 99 1011.7
20260510051523 52 0.0 1.0 0.00 0.11 0.00 99 1011.8
20260510051419 52 0.0 1.0 0.00 0.11 0.00 99 1011.7
20260510051350 52 0.0 1.0 0.00 0.11 0.00 99 1011.9
20260510051226 52 0.0 1.0 0.00 0.11 0.00 99 1011.8
20260510051122 52 110 0.0 1.0 0.00 0.11 0.00 99 1011.9
20260510051017 52 0.0 1.0 0.00 0.11 0.00 99 1012.0
20260510050949 52 0.0 1.0 0.00 0.11 0.00 99 1012.0
20260510050824 52 140 0.0 2.0 0.00 0.11 0.00 99 1011.9
20260510050720 52 114 0.0 2.0 0.00 0.11 0.00 99 1011.9
20260510050616 52 112 0.0 1.0 0.00 0.11 0.00 99 1011.9
20260510050528 52 124 1.0 2.0 0.00 0.11 0.00 99 1011.9
20260510050423 52 124 1.0 1.0 0.00 0.11 0.00 99 1011.9
20260510050319 52 128 1.0 1.0 0.00 0.11 0.00 99 1011.9
20260510050231 52 102 0.0 2.0 0.00 0.11 0.00 99 1011.8
20260510050126 52 82 0.0 2.0 0.00 0.11 0.00 99 1011.7
20260510050022 52 80 0.0 1.0 0.00 0.11 0.00 99 1011.8
20260510045917 52 96 0.0 1.0 0.00 0.11 0.00 99 1011.7
20260510045829 52 108 1.0 2.0 0.00 0.11 0.00 99 1011.9
20260510045725 52 105 1.0 2.0 0.00 0.11 0.00 99 1012.0
20260510045620 51 83 0.0 2.0 0.00 0.11 0.00 99 1012.1
20260510045516 51 102 1.0 2.0 0.00 0.11 0.00 99 1012.1
20260510045428 51 121 1.0 2.0 0.00 0.11 0.00 99 1011.9
20260510045323 51 116 1.0 2.0 0.00 0.11 0.00 99 1012.0
20260510045219 51 140 1.0 2.0 0.00 0.11 0.00 99 1012.1
20260510045130 51 109 1.0 2.0 0.00 0.11 0.00 99 1012.0
20260510045026 51 101 1.0 2.0 0.00 0.11 0.00 99 1012.0
20260510044922 51 98 1.0 2.0 0.00 0.11 0.00 99 1012.0
20260510044837 51 92 1.0 2.0 0.00 0.11 0.00 99 1012.0
20260510044729 51 0.0 1.0 0.00 0.11 0.00 99 1012.1
20260510044625 51 0.0 1.0 0.00 0.11 0.00 99 1012.1
20260510044520 51 79 0.0 2.0 0.00 0.11 0.00 99 1012.2
20260510044416 51 70 1.0 2.0 0.00 0.11 0.00 99 1012.2
20260510044328 51 0.0 2.0 0.00 0.11 0.00 99 1012.2
20260510044223 51 103 1.0 1.0 0.00 0.11 0.00 99 1012.3
20260510044119 51 0.0 2.0 0.00 0.11 0.00 99 1012.2
20260510044051 51 128 1.0 2.0 0.00 0.11 0.00 99 1012.1
20260510043926 51 137 2.0 2.0 0.00 0.11 0.00 99 1012.1
20260510043822 51 136 0.0 2.0 0.00 0.11 0.00 99 1012.2
20260510043717 51 96 1.0 2.0 0.00 0.11 0.00 99 1012.1
20260510043629 51 119 0.0 2.0 0.00 0.11 0.00 99 1012.2
20260510043525 51 108 1.0 2.0 0.00 0.11 0.00 99 1011.9
20260510043440 51 0.0 2.0 0.00 0.11 0.00 99 1012.0
20260510043316 51 92 1.0 2.0 0.00 0.11 0.00 99 1011.9
20260510043228 51 98 1.0 2.0 0.00 0.11 0.00 99 1012.0
20260510043124 51 119 2.0 2.0 0.00 0.11 0.00 99 1012.0
20260510043039 51 125 1.0 2.0 0.00 0.11 0.00 99 1012.0
20260510042931 51 119 1.0 2.0 0.00 0.11 0.00 99 1012.0
20260510042826 51 130 1.0 1.0 0.00 0.11 0.00 99 1012.1
20260510042722 50 101 1.0 1.0 0.00 0.11 0.00 99 1011.9
20260510042618 50 0.0 1.0 0.00 0.11 0.00 99 1012.3
20260510042549 51 117 1.0 2.0 0.00 0.11 0.00 99 1012.2
20260510042425 51 131 1.0 2.0 0.00 0.11 0.00 99 1012.1
20260510042321 50 143 1.0 2.0 0.00 0.11 0.00 99 1012.0
20260510042216 50 125 1.0 2.0 0.00 0.11 0.00 99 1012.2
20260510042148 50 125 1.0 2.0 0.00 0.11 0.00 99 1012.1
20260510042024 50 0.0 1.0 0.00 0.11 0.00 99 1012.1
20260510041919 50 146 0.0 1.0 0.00 0.11 0.00 99 1012.1
20260510041831 50 129 1.0 2.0 0.00 0.11 0.00 99 1012.0
20260510041727 50 139 1.0 2.0 0.00 0.11 0.00 99 1012.0
20260510041622 50 117 1.0 2.0 0.00 0.11 0.00 99 1012.1
20260510041518 50 0.0 1.0 0.00 0.11 0.00 99 1012.1
20260510041429 50 140 0.0 1.0 0.00 0.11 0.00 99 1012.1
20260510041325 50 126 1.0 2.0 0.00 0.11 0.00 99 1012.2
20260510041221 50 128 0.0 1.0 0.00 0.11 0.00 99 1012.3
20260510041116 50 126 1.0 2.0 0.00 0.11 0.00 99 1012.2
20260510041048 50 151 1.0 2.0 0.00 0.11 0.00 99 1012.0
20260510040924 50 129 1.0 2.0 0.00 0.11 0.00 99 1012.1
20260510040819 50 158 0.0 2.0 0.00 0.11 0.00 99 1012.0
20260510040715 50 154 0.0 2.0 0.00 0.11 0.00 99 1011.9
20260510040647 50 140 1.0 1.0 0.00 0.11 0.00 99 1012.2
20260510040522 50 0.0 1.0 0.00 0.11 0.00 99 1012.1
20260510040438 50 149 1.0 2.0 0.00 0.11 0.00 99 1012.0
20260510040330 50 142 1.0 1.0 0.00 0.11 0.00 99 1012.0
20260510040225 50 146 1.0 2.0 0.00 0.11 0.00 99 1012.0
20260510040121 50 121 1.0 2.0 0.00 0.11 0.00 99 1012.0
20260510040037 50 40 0.0 1.0 0.00 0.11 0.00 99 1011.9
20260510035948 50 130 0.0 1.0 0.00 0.11 0.11 99 1012.0
20260510035824 50 127 1.0 1.0 0.00 0.11 0.11 99 1011.9
20260510035719 50 0.0 0.0 0.00 0.11 0.11 99 1011.9
20260510035615 50 133 0.0 2.0 0.00 0.11 0.11 99 1011.9
20260510035547 50 0.0 2.0 0.00 0.11 0.11 99 1011.9
20260510035422 50 103 1.0 1.0 0.00 0.11 0.11 99 1011.8
20260510035318 50 164 1.0 2.0 0.00 0.11 0.11 99 1011.7
20260510035230 50 175 1.0 2.0 0.00 0.11 0.11 99 1011.8
20260510035126 50 156 0.0 2.0 0.00 0.11 0.11 99 1011.7
20260510035021 49 156 1.0 1.0 0.00 0.11 0.11 99 1011.8
20260510034917 49 153 0.0 1.0 0.00 0.11 0.11 99 1011.7
20260510034828 49 0.0 2.0 0.00 0.11 0.11 99 1011.8
20260510034724 49 138 0.0 2.0 0.00 0.11 0.11 99 1011.8
20260510034620 49 170 0.0 2.0 0.00 0.11 0.11 99 1011.8
20260510034515 49 157 1.0 2.0 0.00 0.11 0.11 99 1011.8
20260510034427 49 184 0.0 2.0 0.00 0.11 0.11 99 1011.8
20260510034322 49 158 0.0 2.0 0.00 0.11 0.11 99 1011.7
20260510034218 49 158 1.0 2.0 0.00 0.11 0.11 99 1011.8
20260510034130 49 152 1.0 2.0 0.00 0.11 0.11 99 1011.6
20260510034025 49 136 0.0 2.0 0.00 0.11 0.11 99 1011.7
20260510033921 49 0.0 2.0 0.00 0.11 0.11 99 1011.7
20260510033816 49 149 1.0 2.0 0.00 0.11 0.11 99 1011.8
20260510033728 50 0.0 2.0 0.00 0.11 0.11 99 1011.7
20260510033644 50 0.0 1.0 0.00 0.11 0.11 99 1011.7
20260510033519 50 0.0 2.0 0.00 0.11 0.11 99 1011.8
20260510033415 50 153 0.0 2.0 0.00 0.11 0.11 99 1011.7
20260510033327 50 124 0.0 2.0 0.00 0.11 0.11 99 1011.6
20260510033222 50 130 0.0 1.0 0.00 0.11 0.11 99 1011.7
20260510033118 50 0.0 2.0 0.00 0.11 0.11 99 1011.7
20260510033030 50 0.0 2.0 0.00 0.11 0.11 99 1011.7
20260510032945 49 178 1.0 2.0 0.00 0.11 0.11 99 1011.7
20260510032820 49 187 1.0 1.0 0.00 0.11 0.11 99 1011.8
20260510032736 50 154 1.0 2.0 0.00 0.11 0.11 99 1011.7
20260510032628 50 0.0 2.0 0.00 0.11 0.11 99 1011.8
20260510032523 49 0.0 2.0 0.00 0.11 0.11 99 1011.7
20260510032419 49 115 0.0 2.0 0.00 0.11 0.11 99 1011.6
20260510032331 49 129 0.0 2.0 0.00 0.11 0.11 99 1011.8
20260510032246 50 122 1.0 2.0 0.00 0.11 0.11 99 1011.7
20260510032122 50 134 1.0 2.0 0.00 0.11 0.11 99 1011.8
20260510032018 50 0.0 1.0 0.00 0.11 0.11 99 1011.6
20260510031929 50 0.0 1.0 0.00 0.11 0.11 99 1011.7
20260510031825 50 127 1.0 2.0 0.00 0.11 0.11 99 1011.8
20260510031720 50 0.0 1.0 0.00 0.11 0.11 99 1011.7
20260510031616 50 127 0.0 2.0 0.00 0.11 0.11 99 1011.8
20260510031528 50 130 0.0 2.0 0.00 0.11 0.11 99 1011.8
20260510031424 50 94 0.0 2.0 0.00 0.11 0.11 99 1011.7
20260510031319 50 125 1.0 2.0 0.00 0.11 0.11 99 1011.6
20260510031231 50 126 0.0 2.0 0.00 0.11 0.11 99 1011.5
20260510031127 50 0.0 1.0 0.00 0.11 0.11 99 1011.7
20260510031022 50 88 1.0 2.0 0.00 0.11 0.11 99 1011.7
20260510030918 50 0.0 1.0 0.00 0.11 0.11 99 1011.6
20260510030830 50 91 1.0 1.0 0.00 0.11 0.11 99 1011.7
20260510030725 50 180 1.0 1.0 0.00 0.11 0.11 99 1011.9
20260510030621 50 109 1.0 2.0 0.00 0.11 0.11 99 1012.3
20260510030536 50 132 1.0 2.0 0.00 0.11 0.11 99 1012.8
20260510030428 50 127 1.0 2.0 0.00 0.11 0.11 99 1014.1
20260510030404 50 129 0.0 2.0 0.00 0.11 0.11 99 1016.4
20260510030219 50 0.0 1.0 0.00 0.11 0.11 99 1021.3
20260510030131 50 132 1.0 1.0 0.00 0.11 0.11 99 1028.5
20260510030027 50 0.0 1.0 0.00 0.11 0.11 99 1050.1
20260510025922 50 0.0 1.0 0.00 0.11 0.11 99 1088.5
20260510025858 50 0.0 1.0 0.00 0.11 0.11 99 1011.7
20260510025729 50 0.0 1.0 0.00 0.11 0.11 99 1011.6
20260510025645 50 116 1.0 2.0 0.00 0.11 0.11 99 1011.5
20260510025520 50 134 0.0 2.0 0.00 0.11 0.11 99 1011.7
20260510025416 50 139 0.0 2.0 0.00 0.11 0.11 99 1011.6
20260510025328 50 130 1.0 2.0 0.00 0.11 0.11 99 1011.5
20260510025224 50 123 1.0 2.0 0.00 0.11 0.11 99 1011.5
20260510025119 50 113 1.0 2.0 0.00 0.11 0.11 99 1011.5
20260510025035 50 99 1.0 2.0 0.00 0.11 0.11 99 1011.6
20260510024927 50 92 1.0 2.0 0.00 0.11 0.11 99 1011.6
20260510024822 50 108 1.0 2.0 0.00 0.11 0.11 99 1011.6
20260510024718 50 103 1.0 2.0 0.00 0.11 0.11 99 1011.7
20260510024630 50 121 1.0 2.0 0.00 0.11 0.11 99 1011.8
20260510024525 50 71 1.0 2.0 0.00 0.11 0.11 99 1011.7
20260510024421 50 82 0.0 2.0 0.00 0.11 0.11 99 1011.6
20260510024316 50 78 1.0 2.0 0.00 0.11 0.11 99 1011.7
20260510024228 50 102 1.0 2.0 0.00 0.11 0.11 99 1011.5
20260510024124 50 85 1.0 2.0 0.00 0.11 0.11 99 1011.7
20260510024020 50 99 1.0 2.0 0.00 0.11 0.11 99 1011.7
20260510023915 50 99 2.0 2.0 0.00 0.11 0.11 99 1011.6
20260510023827 50 105 1.0 2.0 0.00 0.11 0.11 98 1011.7
20260510023723 50 123 0.0 1.0 0.00 0.11 0.11 98 1011.7
20260510023618 51 0.0 1.0 0.00 0.11 0.11 98 1011.6
20260510023550 51 0.0 2.0 0.00 0.11 0.11 98 1011.7
20260510023426 51 110 1.0 2.0 0.00 0.11 0.11 98 1011.7
20260510023321 51 118 1.0 2.0 0.00 0.11 0.11 98 1011.8
20260510023217 51 113 1.0 2.0 0.00 0.11 0.11 98 1011.7
20260510023129 50 93 1.0 2.0 0.00 0.11 0.11 98 1011.6
20260510023024 51 124 1.0 2.0 0.00 0.11 0.11 98 1011.6
20260510022920 51 120 1.0 2.0 0.00 0.11 0.11 98 1011.6
20260510022816 51 0.0 2.0 0.00 0.11 0.11 98 1011.7
20260510022727 51 102 1.0 2.0 0.00 0.11 0.11 98 1011.8
20260510022623 51 126 0.0 2.0 0.00 0.11 0.11 98 1011.8
20260510022518 51 131 0.0 1.0 0.00 0.11 0.11 98 1011.6
20260510022430 51 0.0 1.0 0.00 0.11 0.11 98 1011.5
20260510022326 51 106 1.0 1.0 0.00 0.11 0.11 98 1011.8
20260510022221 51 0.0 1.0 0.00 0.11 0.11 98 1011.6
20260510022125 51 0.0 0.0 0.00 0.11 0.11 98 1011.6
20260510021820 51 0.0 2.0 0.00 0.11 0.11 98 1011.6
20260510021716 51 132 1.0 2.0 0.00 0.11 0.11 98 1011.7
20260510021627 51 141 1.0 2.0 0.00 0.11 0.11 98 1011.7
20260510021523 51 147 1.0 2.0 0.00 0.11 0.11 98 1011.8
20260510021419 51 137 0.0 2.0 0.00 0.11 0.11 98 1011.8
20260510021330 51 141 0.0 2.0 0.00 0.11 0.11 98 1011.7
20260510021226 51 137 1.0 2.0 0.00 0.11 0.11 98 1011.8
20260510021122 51 142 1.0 2.0 0.00 0.11 0.11 98 1011.5
20260510021017 51 133 1.0 2.0 0.00 0.11 0.11 98 1011.5
20260510020929 51 115 1.0 2.0 0.00 0.11 0.11 98 1011.7
20260510020825 51 102 1.0 2.0 0.00 0.11 0.11 98 1011.7
20260510020721 51 126 0.0 1.0 0.00 0.11 0.11 98 1011.6
20260510020616 51 0.0 1.0 0.00 0.11 0.11 98 1011.5
20260510020528 51 99 1.0 1.0 0.00 0.11 0.11 98 1011.7
20260510020423 51 136 1.0 2.0 0.00 0.11 0.11 98 1011.7
20260510020319 51 144 0.0 2.0 0.00 0.11 0.11 98 1011.6
20260510020251 51 135 1.0 2.0 0.00 0.11 0.11 98 1011.5
20260510020126 51 0.0 1.0 0.00 0.11 0.11 98 1011.5
20260510020022 51 144 1.0 2.0 0.00 0.11 0.11 98 1011.7
20260510015918 51 100 0.0 1.0 0.00 0.11 0.11 98 1011.4
20260510015850 51 98 1.0 2.0 0.00 0.11 0.11 98 1011.6
20260510015725 51 64 0.0 2.0 0.00 0.11 0.11 98 1011.3
20260510015641 51 0.0 2.0 0.00 0.11 0.11 98 1011.6
20260510015517 51 0.0 1.0 0.00 0.11 0.11 98 1011.7
20260510015428 51 109 0.0 1.0 0.00 0.11 0.11 98 1011.6
20260510015324 51 0.0 1.0 0.00 0.11 0.11 98 1011.6
20260510015220 51 0.0 1.0 0.00 0.11 0.11 98 1011.8
20260510015115 51 157 1.0 2.0 0.00 0.11 0.11 98 1011.8
20260510015027 52 0.0 2.0 0.00 0.11 0.11 98 1011.6
20260510014922 52 144 0.0 2.0 0.00 0.11 0.11 98 1011.7
20260510014818 52 138 0.0 1.0 0.00 0.11 0.11 98 1011.7
20260510014730 52 0.0 2.0 0.00 0.11 0.11 98 1011.6
20260510014706 52 0.0 1.0 0.00 0.11 0.11 98 1011.6
20260510014521 52 102 0.0 1.0 0.00 0.11 0.11 98 1011.5
20260510014417 52 134 1.0 1.0 0.00 0.11 0.11 98 1011.6
20260510014328 52 119 0.0 2.0 0.00 0.11 0.11 98 1011.6
20260510014224 52 139 1.0 2.0 0.00 0.11 0.11 98 1011.5
20260510014120 52 147 1.0 2.0 0.00 0.11 0.11 98 1011.6
20260510014107 52 128 1.0 2.0 0.00 0.11 0.11 98 1011.6
20260510013823 52 133 1.0 2.0 0.00 0.11 0.11 98 1011.5
20260510013718 52 135 0.0 2.0 0.00 0.11 0.11 98 1011.8
20260510013650 52 137 0.0 2.0 0.00 0.11 0.11 98 1011.6
20260510013525 52 0.0 0.0 0.00 0.11 0.11 98 1011.6
20260510013441 52 0.0 0.0 0.00 0.11 0.11 98 1011.7
20260510013337 52 0.0 1.0 0.00 0.11 0.11 98 1011.6
20260510013248 52 0.0 1.0 0.00 0.11 0.11 98 1011.6
20260510013124 52 0.0 0.0 0.00 0.11 0.11 98 1011.4
20260510013020 52 0.0 2.0 0.00 0.11 0.11 98 1011.5
20260510012915 52 120 1.0 2.0 0.00 0.11 0.11 98 1011.5
20260510012827 52 119 1.0 2.0 0.00 0.11 0.11 98 1011.5
20260510012723 52 126 1.0 2.0 0.00 0.11 0.11 98 1011.4
20260510012639 52 129 1.0 2.0 0.00 0.11 0.11 98 1011.5
20260510012530 52 130 1.0 1.0 0.00 0.11 0.11 98 1011.5
20260510012446 52 109 0.0 2.0 0.00 0.11 0.11 98 1011.7
20260510012322 52 0.0 1.0 0.00 0.11 0.11 98 1011.4
20260510012217 52 0.0 0.0 0.00 0.11 0.11 98 1011.5
20260510012129 52 0.0 1.0 0.00 0.11 0.11 98 1011.6
20260510012025 52 0.0 1.0 0.00 0.11 0.11 98 1011.5
20260510011920 52 0.0 1.0 0.00 0.11 0.11 98 1011.5
20260510011816 52 131 1.0 1.0 0.00 0.11 0.11 98 1011.7
20260510011728 53 0.0 1.0 0.00 0.11 0.11 98 1011.6
20260510011623 53 0.0 1.0 0.00 0.11 0.11 98 1011.7
20260510011519 53 95 0.0 2.0 0.00 0.11 0.11 98 1011.6
20260510011430 53 90 1.0 2.0 0.00 0.11 0.11 98 1011.5
20260510011326 53 0.0 1.0 0.00 0.11 0.11 98 1011.6
20260510011222 53 134 0.0 1.0 0.00 0.11 0.11 98 1011.7
20260510011117 52 0.0 2.0 0.00 0.11 0.11 98 1011.6
20260510011029 52 86 0.0 2.0 0.00 0.11 0.11 98 1011.6
20260510010925 53 134 0.0 2.0 0.00 0.11 0.11 98 1011.5
20260510010840 53 0.0 1.0 0.00 0.11 0.11 98 1011.5
20260510010716 53 0.0 2.0 0.00 0.11 0.11 98 1011.6
20260510010627 53 130 0.0 2.0 0.00 0.11 0.11 98 1011.3
20260510010523 53 0.0 0.0 0.00 0.11 0.11 98 1011.4
20260510010419 53 0.0 1.0 0.00 0.11 0.11 98 1011.5
20260510010331 53 114 1.0 1.0 0.00 0.11 0.11 98 1011.5
20260510010226 53 37 0.0 2.0 0.00 0.11 0.11 98 1011.4
20260510010122 53 144 1.0 2.0 0.00 0.11 0.11 97 1011.2
20260510010017 53 0.0 1.0 0.00 0.11 0.11 97 1011.4
20260510005949 53 0.0 2.0 0.00 0.11 0.11 97 1011.2
20260510005825 53 142 0.0 2.0 0.00 0.11 0.11 97 1011.2
20260510005720 53 105 1.0 2.0 0.00 0.11 0.11 97 1011.1
20260510005616 53 121 1.0 2.0 0.00 0.11 0.11 97 1011.1
20260510005528 53 117 0.0 1.0 0.00 0.11 0.11 97 1011.1
20260510005423 53 115 1.0 1.0 0.00 0.11 0.11 97 1011.3
20260510005319 53 89 0.0 1.0 0.00 0.11 0.11 97 1011.3
20260510005230 53 153 1.0 2.0 0.00 0.11 0.11 97 1011.3
20260510005126 53 149 1.0 2.0 0.00 0.11 0.11 97 1011.2
20260510005022 53 141 1.0 2.0 0.00 0.11 0.11 97 1011.3
20260510004917 53 139 1.0 2.0 0.00 0.11 0.11 97 1011.0
20260510004829 53 126 1.0 2.0 0.00 0.11 0.11 97 1011.2
20260510004725 53 121 1.0 2.0 0.00 0.11 0.11 97 1011.2
20260510004620 53 113 0.0 2.0 0.00 0.11 0.11 97 1011.3
20260510004516 53 126 1.0 2.0 0.00 0.11 0.11 97 1011.2
20260510004428 53 112 1.0 2.0 0.00 0.11 0.11 97 1010.9
20260510004343 53 93 1.0 2.0 0.00 0.11 0.11 97 1011.2
20260510004219 53 95 1.0 2.0 0.00 0.11 0.11 97 1011.0
20260510004130 53 116 0.0 1.0 0.00 0.11 0.11 97 1011.0
20260510004026 53 127 1.0 2.0 0.00 0.11 0.11 97 1011.0
20260510003922 53 146 1.0 2.0 0.00 0.11 0.11 97 1011.1
20260510003817 54 158 1.0 2.0 0.00 0.11 0.11 97 1011.1
20260510003729 54 120 1.0 2.0 0.00 0.11 0.11 97 1011.1
20260510003645 54 116 2.0 2.0 0.00 0.11 0.11 97 1011.2
20260510003520 53 142 1.0 2.0 0.00 0.11 0.11 97 1011.0
20260510003416 54 149 1.0 2.0 0.00 0.11 0.11 97 1011.2
20260510003348 54 0.0 2.0 0.00 0.11 0.11 97 1010.9
20260510003243 54 141 0.0 2.0 0.00 0.11 0.11 97 1011.3
20260510003119 53 91 0.0 1.0 0.00 0.11 0.11 97 1011.1
20260510003031 53 0.0 1.0 0.00 0.11 0.11 97 1011.2
20260510002946 54 117 1.0 1.0 0.00 0.11 0.11 97 1011.1
20260510002822 54 122 0.0 1.0 0.00 0.11 0.11 97 1011.1
20260510002738 54 0.0 2.0 0.00 0.11 0.11 97 1011.2
20260510002629 54 142 1.0 2.0 0.00 0.11 0.11 97 1011.1
20260510002525 54 132 1.0 2.0 0.00 0.11 0.11 97 1011.0
20260510002420 54 0.0 1.0 0.00 0.11 0.11 97 1011.0
20260510002316 54 81 0.0 2.0 0.00 0.11 0.11 97 1011.2
20260510002228 54 0.0 2.0 0.00 0.11 0.11 97 1011.1
20260510002203 54 133 1.0 2.0 0.00 0.11 0.11 97 1011.1
20260510002019 54 184 0.0 2.0 0.00 0.11 0.11 97 1011.2
20260510001931 54 130 2.0 2.0 0.00 0.11 0.11 97 1011.1
20260510001846 54 116 2.0 2.0 0.00 0.11 0.11 96 1011.1
20260510001722 54 137 1.0 2.0 0.00 0.11 0.11 96 1011.2
20260510001617 54 150 2.0 2.0 0.00 0.11 0.11 96 1011.1
20260510001529 54 147 1.0 2.0 0.00 0.11 0.11 96 1011.1
20260510001425 54 139 1.0 2.0 0.00 0.11 0.11 96 1010.9
20260510001320 54 129 1.0 2.0 0.00 0.11 0.11 96 1011.2
20260510001236 54 0.0 1.0 0.00 0.11 0.11 96 1011.0
20260510001128 54 139 0.0 2.0 0.00 0.11 0.11 96 1011.0
20260510001024 54 138 0.0 2.0 0.00 0.11 0.11 96 1011.1
20260510000919 54 126 0.0 1.0 0.00 0.11 0.11 96 1011.0
20260510000831 54 0.0 1.0 0.00 0.11 0.11 96 1011.1
20260510000746 54 166 1.0 1.0 0.00 0.11 0.11 96 1011.2
20260510000622 55 138 1.0 2.0 0.00 0.11 0.11 96 1011.2
20260510000518 55 0.0 2.0 0.00 0.11 0.11 96 1011.2
20260510000429 55 124 0.0 1.0 0.00 0.11 0.11 96 1011.1
20260510000326 55 0.0 1.0 0.00 0.11 0.11 96 1011.1
20260510000221 55 0.0 2.0 0.00 0.11 0.11 96 1011.1
20260510000116 55 0.0 1.0 0.00 0.11 0.11 96 1011.1
20260510000028 55 0.0 1.0 0.00 0.11 0.11 96 1011.1
20260509235923 55 116 0.0 1.0 0.00 0.11 0.11 96 1011.0
20260509235819 55 0.0 1.0 0.00 0.11 0.11 96 1010.9
20260509235751 55 117 1.0 2.0 0.00 0.11 0.11 96 1010.9
20260509235646 55 78 1.0 2.0 0.00 0.11 0.11 96 1011.0
20260509235522 55 102 0.0 2.0 0.00 0.11 0.11 96 1010.9
20260509235418 55 0.0 0.0 0.00 0.11 0.11 96 1011.0
20260509235329 55 0.0 1.0 0.00 0.11 0.11 96 1011.0
20260509235225 55 136 1.0 2.0 0.00 0.11 0.11 96 1010.9
20260509235121 55 0.0 2.0 0.00 0.11 0.11 96 1010.9
20260509235017 55 137 1.0 1.0 0.00 0.11 0.11 96 1010.8
20260509234928 55 0.0 2.0 0.00 0.11 0.11 95 1010.9
20260509234844 55 129 1.0 2.0 0.00 0.11 0.11 95 1010.8
20260509234719 55 154 0.0 2.0 0.00 0.11 0.11 95 1010.9
20260509234635 55 149 1.0 2.0 0.00 0.11 0.11 95 1010.8
20260509234607 55 151 0.0 2.0 0.00 0.11 0.11 95 1010.9
20260509234422 55 155 1.0 2.0 0.00 0.11 0.11 95 1010.9
20260509234318 55 161 0.0 1.0 0.00 0.11 0.11 95 1011.1
20260509234230 55 187 0.0 1.0 0.00 0.11 0.11 95 1011.0
20260509234126 56 131 1.0 2.0 0.00 0.11 0.11 95 1010.9
20260509234021 56 152 0.0 2.0 0.00 0.11 0.11 95 1010.9
20260509233917 56 141 1.0 2.0 0.00 0.11 0.11 95 1011.0
20260509233828 56 135 2.0 3.0 0.00 0.11 0.11 95 1010.9
20260509233724 56 117 1.0 3.0 0.00 0.11 0.11 95 1010.9
20260509233619 56 107 2.0 2.0 0.00 0.11 0.11 95 1010.9
20260509233515 56 117 1.0 2.0 0.00 0.11 0.11 95 1011.0
20260509233427 56 113 1.0 2.0 0.00 0.11 0.11 95 1010.9
20260509233403 56 126 1.0 2.0 0.00 0.11 0.11 95 1010.8
20260509233218 56 105 1.0 2.0 0.00 0.11 0.11 95 1010.9
20260509233130 56 89 1.0 2.0 0.00 0.11 0.11 95 1010.9
20260509233026 56 90 1.0 2.0 0.00 0.11 0.11 95 1010.8
20260509232921 56 85 1.0 2.0 0.00 0.11 0.11 94 1010.8
20260509232817 56 88 1.0 2.0 0.00 0.11 0.11 94 1010.9
20260509232728 56 91 2.0 2.0 0.00 0.11 0.11 94 1010.8
20260509232624 56 81 1.0 2.0 0.00 0.11 0.11 94 1010.8
20260509232520 56 0.0 1.0 0.00 0.11 0.11 94 1010.8
20260509232415 56 62 1.0 2.0 0.00 0.11 0.11 94 1010.7
20260509232327 56 78 1.0 2.0 0.00 0.11 0.11 94 1010.8
20260509232243 56 96 1.0 2.0 0.00 0.11 0.11 94 1010.8
20260509232118 56 118 2.0 2.0 0.00 0.11 0.11 94 1010.6
20260509232050 56 114 2.0 2.0 0.00 0.11 0.11 94 1010.6
20260509231926 56 72 1.0 2.0 0.00 0.11 0.11 94 1010.9
20260509231821 56 109 0.0 1.0 0.00 0.11 0.11 94 1010.8
20260509231717 56 109 0.0 2.0 0.00 0.11 0.11 94 1010.6
20260509231649 56 113 2.0 3.0 0.00 0.11 0.11 94 1010.8
20260509231525 56 146 1.0 2.0 0.00 0.11 0.11 94 1010.6
20260509231420 56 161 0.0 2.0 0.00 0.11 0.11 94 1010.7
20260509231336 56 106 1.0 2.0 0.00 0.11 0.11 94 1010.6
20260509231228 56 74 1.0 3.0 0.00 0.11 0.11 94 1010.8
20260509231123 56 84 1.0 2.0 0.00 0.11 0.11 94 1010.7
20260509231019 56 0.0 2.0 0.00 0.11 0.11 94 1010.8
20260509230931 56 132 2.0 2.0 0.00 0.11 0.11 94 1010.8
20260509230846 56 104 2.0 2.0 0.00 0.11 0.11 94 1010.8
20260509230722 56 114 1.0 2.0 0.00 0.11 0.11 94 1011.1
20260509230618 56 132 1.0 2.0 0.00 0.11 0.11 94 1010.9
20260509230529 56 126 1.0 2.0 0.00 0.11 0.11 94 1010.9
20260509230445 56 0.0 2.0 0.00 0.11 0.11 94 1011.0
20260509230321 56 131 1.0 2.0 0.00 0.11 0.11 94 1011.1
20260509230216 56 108 1.0 2.0 0.00 0.11 0.11 94 1011.0
20260509230148 56 145 1.0 2.0 0.00 0.11 0.11 94 1011.0
20260509230024 56 0.0 0.0 0.00 0.11 0.11 94 1010.9
20260509225919 56 0.0 1.0 0.00 0.11 0.11 94 1010.8
20260509225831 56 156 0.0 1.0 0.00 0.11 0.11 94 1011.0
20260509225727 56 119 1.0 2.0 0.00 0.11 0.11 94 1011.0
20260509225622 56 134 1.0 2.0 0.00 0.11 0.11 94 1011.0
20260509225518 56 149 1.0 2.0 0.00 0.11 0.11 94 1011.0
20260509225429 56 132 2.0 2.0 0.01 0.11 0.11 94 1011.0
20260509225325 56 143 2.0 3.0 0.01 0.11 0.11 94 1011.1
20260509225220 56 145 2.0 3.0 0.01 0.11 0.11 95 1011.1
20260509225116 56 0.0 2.0 0.02 0.11 0.11 95 1011.1
20260509225028 56 128 1.0 2.0 0.02 0.11 0.11 95 1010.9
20260509224923 56 117 1.0 2.0 0.02 0.11 0.11 95 1010.9
20260509224819 56 112 1.0 2.0 0.02 0.11 0.11 95 1010.9
20260509224731 56 125 2.0 2.0 0.02 0.11 0.11 95 1011.1
20260509224646 56 149 1.0 3.0 0.02 0.11 0.11 95 1011.2
20260509224522 56 127 2.0 3.0 0.02 0.11 0.11 95 1011.0
20260509224417 56 121 1.0 2.0 0.03 0.11 0.11 95 1011.2
20260509224329 56 119 1.0 2.0 0.03 0.11 0.11 95 1011.0
20260509224225 56 103 1.0 2.0 0.03 0.11 0.11 95 1011.1
20260509224120 56 132 1.0 2.0 0.03 0.11 0.11 95 1010.8
20260509224036 56 150 2.0 3.0 0.03 0.11 0.11 95 1011.0
20260509223928 56 113 1.0 2.0 0.03 0.11 0.11 95 1011.1
20260509223843 56 101 2.0 3.0 0.03 0.11 0.11 95 1011.0
20260509223719 56 56 2.0 3.0 0.03 0.11 0.11 95 1011.0
20260509223631 56 83 1.0 2.0 0.03 0.11 0.11 95 1011.2
20260509223546 56 116 1.0 2.0 0.03 0.11 0.11 95 1011.0
20260509223422 56 131 1.0 2.0 0.03 0.11 0.11 95 1011.0
20260509223318 56 139 1.0 2.0 0.03 0.11 0.11 95 1010.8
20260509223229 56 150 2.0 2.0 0.04 0.11 0.11 95 1011.0
20260509223125 56 138 1.0 2.0 0.04 0.11 0.11 95 1010.9
20260509223021 56 146 1.0 2.0 0.04 0.11 0.11 94 1011.2
20260509222936 56 146 2.0 2.0 0.06 0.11 0.11 94 1011.1
20260509222828 56 154 2.0 3.0 0.06 0.11 0.11 94 1011.1
20260509222744 56 133 2.0 3.0 0.07 0.11 0.11 94 1011.2
20260509222619 56 88 1.0 2.0 0.07 0.11 0.11 94 1011.1
20260509222531 56 82 1.0 2.0 0.07 0.11 0.11 94 1011.1
20260509222426 56 95 1.0 2.0 0.07 0.11 0.11 94 1011.4
20260509222322 56 71 0.0 2.0 0.07 0.11 0.11 94 1011.3
20260509222218 56 106 0.0 1.0 0.07 0.11 0.11 94 1011.3
20260509222129 56 0.0 1.0 0.07 0.11 0.11 94 1011.2
20260509222025 56 0.0 1.0 0.07 0.11 0.11 94 1011.4
20260509221921 56 83 0.0 1.0 0.07 0.11 0.11 94 1011.2
20260509221816 56 0.0 1.0 0.07 0.11 0.11 94 1011.3
20260509221728 56 66 1.0 2.0 0.08 0.11 0.11 94 1011.3
20260509221624 56 90 1.0 2.0 0.08 0.11 0.11 94 1011.4
20260509221519 56 0.0 1.0 0.08 0.11 0.11 94 1011.3
20260509221431 56 0.0 1.0 0.08 0.11 0.11 94 1011.4
20260509221326 56 123 0.0 1.0 0.08 0.11 0.11 94 1011.5
20260509221222 56 0.0 1.0 0.08 0.11 0.11 94 1011.3
20260509221118 56 0.0 1.0 0.08 0.11 0.11 94 1011.4
20260509221029 56 134 1.0 2.0 0.08 0.11 0.11 94 1011.4
20260509220925 56 134 1.0 2.0 0.08 0.11 0.11 94 1011.4
20260509220821 56 136 2.0 2.0 0.08 0.11 0.11 94 1011.6
20260509220716 56 138 1.0 2.0 0.08 0.11 0.11 94 1011.5
20260509220628 56 115 1.0 2.0 0.08 0.11 0.11 94 1011.2
20260509220523 56 78 2.0 2.0 0.08 0.11 0.11 94 1011.5
20260509220419 56 88 1.0 2.0 0.08 0.11 0.11 94 1011.5
20260509220331 56 111 1.0 2.0 0.08 0.11 0.11 94 1011.7
20260509220226 56 132 1.0 2.0 0.08 0.11 0.11 94 1011.6
20260509220122 56 141 1.0 2.0 0.08 0.11 0.11 93 1011.5
20260509220018 56 123 1.0 2.0 0.08 0.11 0.11 93 1011.6
20260509215929 56 119 2.0 3.0 0.08 0.11 0.11 93 1011.6
20260509215825 56 121 1.0 3.0 0.08 0.11 0.11 93 1011.6
20260509215721 56 120 2.0 2.0 0.08 0.11 0.11 93 1011.6
20260509215616 56 123 1.0 3.0 0.08 0.11 0.11 93 1011.6
20260509215528 56 115 1.0 2.0 0.08 0.11 0.11 92 1011.7
20260509215424 56 101 2.0 2.0 0.07 0.10 0.10 92 1011.6
20260509215320 56 152 2.0 2.0 0.07 0.10 0.10 92 1011.8
20260509215215 56 151 1.0 2.0 0.07 0.10 0.10 92 1011.7
20260509215127 57 141 2.0 3.0 0.07 0.10 0.10 91 1011.7
20260509215042 57 137 2.0 2.0 0.06 0.09 0.09 91 1011.7
20260509214930 57 0.0 2.0 0.06 0.09 0.09 91 1011.8
20260509214725 57 124 1.0 2.0 0.06 0.09 0.09 91 1011.6
20260509214621 57 121 1.0 2.0 0.06 0.09 0.09 91 1011.7
20260509214517 57 158 1.0 2.0 0.06 0.09 0.09 91 1011.6
20260509214428 57 139 2.0 2.0 0.06 0.09 0.09 91 1011.5
20260509214324 57 134 1.0 2.0 0.06 0.09 0.09 91 1011.4
20260509214220 57 98 1.0 2.0 0.06 0.09 0.09 90 1011.5
20260509214115 57 113 1.0 2.0 0.06 0.09 0.09 90 1011.5
20260509214027 57 124 0.0 2.0 0.06 0.09 0.09 90 1011.5
20260509213923 57 94 1.0 2.0 0.06 0.09 0.09 90 1011.5
20260509213819 57 124 1.0 2.0 0.06 0.09 0.09 89 1011.4
20260509213750 57 165 1.0 2.0 0.06 0.09 0.09 89 1011.4
20260509213626 57 166 1.0 3.0 0.06 0.09 0.09 88 1011.5
20260509213522 57 126 1.0 2.0 0.06 0.09 0.09 88 1011.6
20260509213417 57 86 1.0 1.0 0.05 0.08 0.08 88 1011.6
20260509213329 57 81 1.0 2.0 0.05 0.08 0.08 87 1011.6
20260509213224 57 74 1.0 2.0 0.05 0.08 0.08 86 1011.7
20260509213120 58 89 2.0 2.0 0.04 0.07 0.07 86 1011.8
20260509213016 58 61 1.0 2.0 0.04 0.07 0.07 86 1011.9
20260509212928 58 95 1.0 2.0 0.03 0.06 0.06 86 1011.8
20260509212919 58 284 1.0 2.0 0.02 0.05 0.05 86 1011.8
20260509212859 58 158 1.0 2.0 0.02 0.05 0.05 86 1011.8
20260509212631 58 179 1.0 2.0 0.02 0.05 0.05 85 1011.7
20260509212526 58 153 1.0 2.0 0.01 0.04 0.04 85 1011.7
20260509212442 58 161 1.0 2.0 0.01 0.04 0.04 84 1011.7
20260509212317 58 166 0.0 2.0 0.01 0.04 0.04 84 1011.7
20260509212249 58 167 0.0 2.0 0.01 0.04 0.04 85 1011.6
20260509212125 58 0.0 1.0 0.01 0.04 0.04 84 1011.3
20260509212021 58 0.0 1.0 0.01 0.04 0.04 84 1011.5
20260509211916 58 75 0.0 2.0 0.01 0.04 0.04 84 1011.4
20260509211828 58 31 0.0 2.0 0.01 0.04 0.04 84 1011.2
20260509211723 58 0.0 0.0 0.00 0.04 0.04 83 1011.4
20260509211619 58 0.0 1.0 0.00 0.04 0.04 83 1011.2
20260509211531 58 145 1.0 2.0 0.00 0.04 0.04 83 1011.2
20260509211426 58 141 1.0 2.0 0.00 0.04 0.04 82 1011.2
20260509211322 58 171 0.0 2.0 0.00 0.04 0.04 81 1011.3
20260509211217 58 0.0 2.0 0.00 0.04 0.04 82 1011.1
20260509211129 58 117 0.0 2.0 0.00 0.04 0.04 82 1011.3
20260509211025 58 118 0.0 2.0 0.00 0.04 0.04 82 1011.0
20260509210920 58 89 2.0 3.0 0.00 0.04 0.04 82 1011.1
20260509210816 58 94 2.0 3.0 0.00 0.04 0.04 82 1011.3
20260509210728 58 70 2.0 2.0 0.00 0.03 0.03 81 1011.3
20260509210623 58 152 1.0 2.0 0.00 0.03 0.03 81 1011.6
20260509210519 58 303 0.0 2.0 0.00 0.03 0.03 81 1011.5
20260509210431 58 71 0.0 2.0 0.00 0.03 0.03 81 1011.4
20260509210326 58 94 0.0 2.0 0.00 0.03 0.03 81 1011.4
20260509210222 58 93 1.0 2.0 0.00 0.03 0.03 80 1011.4
20260509210118 58 65 2.0 3.0 0.00 0.03 0.03 80 1011.4
20260509210029 58 73 2.0 3.0 0.00 0.03 0.03 80 1011.6
20260509205925 58 55 1.0 2.0 0.00 0.03 0.03 80 1011.5
20260509205821 58 202 0.0 2.0 0.00 0.03 0.03 80 1011.6
20260509205736 58 195 2.0 4.0 0.00 0.03 0.03 80 1011.6
20260509205628 59 178 2.0 2.0 0.00 0.03 0.03 79 1011.5
20260509205523 59 184 1.0 2.0 0.00 0.03 0.03 80 1011.4
20260509205419 59 153 0.0 1.0 0.00 0.03 0.03 79 1011.3
20260509205351 59 125 1.0 2.0 0.00 0.03 0.03 79 1011.3
20260509205307 59 114 2.0 3.0 0.00 0.03 0.03 79 1011.2
20260509205122 59 326 0.0 3.0 0.00 0.03 0.03 80 1011.3
20260509205038 59 191 2.0 3.0 0.00 0.03 0.03 80 1011.4
20260509204950 59 93 1.0 2.0 0.00 0.03 0.03 80 1011.3
20260509204825 59 0.0 1.0 0.00 0.03 0.03 79 1011.1
20260509204721 59 107 1.0 2.0 0.00 0.03 0.03 79 1011.1
20260509204616 59 81 2.0 3.0 0.00 0.03 0.03 79 1011.3
20260509204528 59 77 1.0 2.0 0.00 0.03 0.03 80 1011.5
20260509204424 59 0.0 2.0 0.00 0.03 0.03 80 1011.2
20260509204319 59 0.0 1.0 0.00 0.03 0.03 81 1011.1
20260509204215 59 5 0.0 2.0 0.00 0.03 0.03 80 1011.3
20260509204147 59 133 1.0 2.0 0.00 0.03 0.03 80 1011.1
20260509204022 59 132 0.0 2.0 0.00 0.03 0.03 79 1011.1
20260509203918 59 162 0.0 2.0 0.00 0.03 0.03 80 1011.3
20260509203830 58 157 0.0 1.0 0.00 0.03 0.03 81 1011.1
20260509203725 58 63 1.0 3.0 0.00 0.03 0.03 80 1011.3
20260509203621 58 76 2.0 2.0 0.00 0.03 0.03 80 1011.4
20260509203517 58 94 1.0 2.0 0.00 0.03 0.03 80 1011.4
20260509203428 58 58 2.0 3.0 0.00 0.03 0.03 79 1011.3
20260509203324 59 66 3.0 4.0 0.00 0.03 0.03 80 1011.5
20260509203220 59 69 2.0 4.0 0.00 0.03 0.03 80 1011.5
20260509203115 59 0.0 0.0 0.00 0.03 0.03 80 1011.6
20260509203027 58 164 0.0 1.0 0.00 0.03 0.03 79 1011.3
20260509202923 59 208 1.0 2.0 0.00 0.03 0.03 80 1011.3
20260509202818 59 178 1.0 2.0 0.00 0.03 0.03 80 1011.1
20260509202730 58 152 1.0 3.0 0.00 0.03 0.03 81 1011.4
20260509202646 58 170 1.0 2.0 0.00 0.03 0.03 80 1011.4
20260509202521 58 176 0.0 2.0 0.00 0.03 0.03 80 1011.5
20260509202417 58 209 0.0 1.0 0.00 0.03 0.03 80 1011.6
20260509202328 58 331 1.0 2.0 0.00 0.03 0.03 81 1011.7
20260509202224 58 4 0.0 2.0 0.00 0.03 0.03 81 1011.6
20260509202120 58 194 1.0 2.0 0.00 0.03 0.03 81 1011.7
20260509202035 58 84 0.0 1.0 0.00 0.03 0.03 81 1011.6
20260509201927 58 195 1.0 2.0 0.00 0.03 0.03 81 1011.6
20260509201822 58 357 1.0 3.0 0.00 0.03 0.03 81 1011.6
20260509201718 58 38 1.0 2.0 0.00 0.03 0.03 80 1011.6
20260509201630 58 27 1.0 3.0 0.00 0.03 0.03 80 1011.5
20260509201526 58 125 1.0 3.0 0.00 0.03 0.03 80 1011.7
20260509201421 58 344 0.0 1.0 0.00 0.03 0.03 80 1011.8
20260509201317 58 141 1.0 2.0 0.00 0.03 0.03 80 1011.6
20260509201228 58 0.0 2.0 0.00 0.03 0.03 80 1011.7
20260509201124 58 99 1.0 3.0 0.00 0.03 0.03 80 1011.7
20260509201020 59 133 1.0 3.0 0.00 0.03 0.03 79 1011.5
20260509200915 59 93 2.0 3.0 0.00 0.03 0.03 80 1011.7
20260509200827 59 278 1.0 2.0 0.00 0.03 0.03 81 1011.7
20260509200723 58 58 0.0 2.0 0.00 0.03 0.03 80 1011.6
20260509200618 59 74 1.0 4.0 0.00 0.03 0.03 80 1011.5
20260509200550 59 75 2.0 2.0 0.00 0.03 0.03 80 1011.6
20260509200426 59 17 1.0 2.0 0.00 0.03 0.03 80 1011.5
20260509200341 59 0.0 1.0 0.00 0.03 0.03 80 1011.7
20260509200217 59 78 1.0 2.0 0.00 0.03 0.03 80 1011.6
20260509200129 59 103 2.0 4.0 0.00 0.03 0.03 81 1011.4
20260509200024 59 290 2.0 4.0 0.00 0.03 0.03 80 1011.5
20260509195920 59 65 1.0 2.0 0.00 0.03 0.03 80 1011.6
20260509195816 59 360 1.0 3.0 0.00 0.03 0.03 80 1011.6
20260509195727 59 73 1.0 3.0 0.00 0.03 0.03 80 1011.6
20260509195623 59 72 1.0 2.0 0.00 0.03 0.03 81 1011.6
20260509195519 58 0.0 1.0 0.00 0.03 0.03 80 1011.6
20260509195450 58 149 1.0 2.0 0.00 0.03 0.03 81 1011.5
20260509195326 58 185 2.0 3.0 0.00 0.03 0.03 80 1011.5
20260509195222 58 194 1.0 2.0 0.00 0.03 0.03 81 1011.5
20260509195117 58 217 1.0 3.0 0.00 0.03 0.03 80 1011.5
20260509195029 59 356 2.0 4.0 0.00 0.03 0.03 80 1011.6
20260509194924 59 242 2.0 4.0 0.00 0.03 0.03 80 1011.6
20260509194820 59 4 2.0 2.0 0.00 0.03 0.03 80 1011.7
20260509194716 59 223 2.0 4.0 0.00 0.03 0.03 81 1011.6
20260509194628 59 263 2.0 4.0 0.00 0.03 0.03 81 1011.7
20260509194523 59 34 1.0 3.0 0.00 0.03 0.03 81 1011.8
20260509194459 59 347 4.0 6.0 0.00 0.03 0.03 80 1011.7
20260509194331 59 328 4.0 6.0 0.00 0.03 0.03 80 1011.5
20260509194226 59 3 3.0 8.0 0.00 0.03 0.03 80 1011.6
20260509194142 59 0 2.0 3.0 0.00 0.03 0.03 81 1011.6
20260509194017 59 72 1.0 2.0 0.00 0.03 0.03 81 1011.6
20260509193929 59 176 1.0 2.0 0.00 0.03 0.03 81 1011.5
20260509193825 59 322 3.0 6.0 0.00 0.03 0.03 80 1011.6
20260509193720 59 3 3.0 3.0 0.00 0.03 0.03 80 1011.5
20260509193616 59 162 1.0 2.0 0.00 0.03 0.03 80 1011.6
20260509193528 59 203 2.0 4.0 0.00 0.03 0.03 80 1011.6
20260509193443 59 269 2.0 4.0 0.00 0.03 0.03 79 1011.4
20260509193319 59 352 2.0 8.0 0.00 0.03 0.03 79 1011.7
20260509193231 59 334 3.0 8.0 0.00 0.03 0.03 79 1011.6
20260509193146 59 289 3.0 5.0 0.00 0.03 0.03 79 1011.6
20260509193022 59 316 3.0 6.0 0.00 0.03 0.03 80 1011.6
20260509192917 59 346 3.0 6.0 0.00 0.03 0.03 79 1011.5
20260509192829 59 324 2.0 9.0 0.00 0.03 0.03 79 1011.6
20260509192745 60 299 3.0 7.0 0.00 0.03 0.03 79 1011.5
20260509192620 60 200 2.0 6.0 0.00 0.03 0.03 79 1011.5
20260509192516 60 331 3.0 7.0 0.00 0.03 0.03 79 1011.4
20260509192448 60 333 3.0 9.0 0.00 0.03 0.03 79 1011.6
20260509192343 60 346 2.0 4.0 0.00 0.03 0.03 79 1011.6
20260509192219 60 205 1.0 2.0 0.00 0.03 0.03 78 1011.5
20260509192131 60 329 4.0 10.0 0.00 0.03 0.03 78 1011.4
20260509192026 60 328 4.0 10.0 0.00 0.03 0.03 79 1011.6
20260509191922 60 163 2.0 3.0 0.01 0.03 0.03 80 1011.5